Provisional Data: Susquehanna River near Binghamton, NY


Please select a monitoring station.
Please select start date.
Please select start date.

Toggle Unit: C/F Toggle Unit: C/F
Sample Time Temperature (C) Temperature (F) Specific Conductivity (mS/cm) pH   Turbidity (NTU+) DO (mg/L)
5/17/2022 12:00:00 AM 6.9449 13.9442
5/17/2022 12:15:00 AM 6.9427 14.4619
5/17/2022 12:30:00 AM 6.9385 14.2406
5/17/2022 12:45:00 AM 6.9357 13.5264
5/17/2022 1:00:00 AM 6.9332 12.557
5/17/2022 1:15:00 AM 6.9331 12.3933
5/17/2022 1:30:00 AM 6.9331 12.0869
5/17/2022 1:45:00 AM 6.9289 11.6431
5/17/2022 2:00:00 AM 6.925 11.0336
5/17/2022 2:15:00 AM 6.9236 11.2809
5/17/2022 2:30:00 AM 6.9199 9.8798
5/17/2022 2:45:00 AM 6.9202 9.6999
5/17/2022 3:00:00 AM 6.9112 12.5893
5/17/2022 3:15:00 AM 6.9084 8.7136
5/17/2022 3:30:00 AM 6.9065 8.2969
5/17/2022 3:45:00 AM 6.9047 8.4379
5/17/2022 4:00:00 AM 6.8996 8.0912
5/17/2022 4:15:00 AM 6.8964 7.841
5/17/2022 4:30:00 AM 6.8912 7.4577
5/17/2022 4:45:00 AM 6.8861 7.2456
5/17/2022 5:00:00 AM 6.885 7.198
5/17/2022 5:15:00 AM 6.8818 7.103
5/17/2022 5:30:00 AM 6.8783 6.7307
5/17/2022 5:45:00 AM 6.8726 6.6
5/17/2022 6:00:00 AM 6.8724 6.4712
5/17/2022 6:15:00 AM 6.8702 6.1549
5/17/2022 6:30:00 AM 6.8656 5.8887
5/17/2022 6:45:00 AM 6.8622 6.0128
5/17/2022 7:00:00 AM 6.8612 5.8488
5/17/2022 7:15:00 AM 6.8577 5.8418
5/17/2022 7:30:00 AM 6.8564 5.7225
5/17/2022 7:45:00 AM 6.8553 5.6919
5/17/2022 8:00:00 AM 6.8517 5.5896
5/17/2022 8:15:00 AM 6.8514 5.6389
5/17/2022 8:30:00 AM 6.851 5.6967
5/17/2022 8:45:00 AM 6.853 5.6
5/17/2022 9:00:00 AM 6.8525 6.0432
5/17/2022 9:15:00 AM 6.8559 6.5382
5/17/2022 9:30:00 AM 6.8603 7.4117
5/17/2022 9:45:00 AM 6.8649 7.2263
5/17/2022 10:00:00 AM 6.8691 7.3628
5/17/2022 10:15:00 AM 6.8735 7.5528
5/17/2022 10:30:00 AM 6.8762 7.4819
5/17/2022 10:45:00 AM 6.8804 7.0088
5/17/2022 11:00:00 AM 6.8843 7.9232
5/17/2022 11:15:00 AM 6.8898 7.7374
5/17/2022 11:30:00 AM 6.8961 9.5986
5/17/2022 11:45:00 AM 6.9006 10
5/17/2022 12:00:00 PM 6.903 10.3034
5/17/2022 12:15:00 PM 6.907 8.9115
5/17/2022 12:30:00 PM 6.913 8.9129
5/17/2022 12:45:00 PM 6.9215 8.9386
5/17/2022 1:00:00 PM 6.9302 8.2546
5/17/2022 1:15:00 PM 6.9363 8.1079
5/17/2022 1:30:00 PM 6.9424 7.8541
5/17/2022 1:45:00 PM 6.9491 8.1442
5/17/2022 2:00:00 PM 6.9562 8.0018
5/17/2022 2:15:00 PM 6.9604 7.9468
5/17/2022 2:30:00 PM 6.9668 7.6457
5/17/2022 2:45:00 PM 6.9731 7.6562
5/17/2022 3:00:00 PM 6.9796 7.5176
5/17/2022 3:15:00 PM 6.9894 7.6855
5/17/2022 3:30:00 PM 7.0001 7.9941
5/17/2022 3:45:00 PM 7.0087 7.8592
5/17/2022 4:00:00 PM 7.0188 7.6095
5/17/2022 4:15:00 PM 7.0272 8.1336
5/17/2022 4:30:00 PM 7.0364 7.7524
5/17/2022 4:45:00 PM 7.0445 7.4124
5/17/2022 5:00:00 PM 7.0537 7.5253
5/17/2022 5:15:00 PM 7.0628 8.3532
5/17/2022 5:30:00 PM 7.0701 8.4684
5/17/2022 5:45:00 PM 7.0742 8.2
5/17/2022 6:00:00 PM 7.0815 7.544
5/17/2022 6:15:00 PM 7.089 7.7984
5/17/2022 6:30:00 PM 7.0977 8.3729
5/17/2022 6:45:00 PM 7.1012 8.4297
5/17/2022 7:00:00 PM 7.101 8.4435
5/17/2022 7:15:00 PM 7.1007 8.7829
5/17/2022 7:30:00 PM 7.0967 8.068
5/17/2022 7:45:00 PM 7.0953 8.2644
5/17/2022 8:00:00 PM 7.0906 22.4554
5/17/2022 8:15:00 PM 7.0828 9.6071
5/17/2022 8:30:00 PM 7.0758 7.2648
5/17/2022 8:45:00 PM 7.0742 7
5/17/2022 9:00:00 PM 7.0638 6.7814
5/17/2022 9:15:00 PM 7.0582 7.0681
5/17/2022 9:30:00 PM 7.0532 6.5919
5/17/2022 9:45:00 PM 7.0496 29.7523
5/17/2022 10:00:00 PM 7.0478 6.5436
5/17/2022 10:15:00 PM 7.0482 6.1956
5/17/2022 10:30:00 PM 7.048 5.9771
5/17/2022 10:45:00 PM 7.046 6.0593
5/17/2022 11:00:00 PM 7.0436 5.9073
5/17/2022 11:15:00 PM 7.0388 5.778
5/17/2022 11:30:00 PM 7.0368 5.5332
5/17/2022 11:45:00 PM 7.0406 5.5
5/18/2022 12:00:00 AM 7.0325 5.9046
5/18/2022 12:15:00 AM 7.0291 5.4754
5/18/2022 12:30:00 AM 7.0251 5.8329
5/18/2022 12:45:00 AM 7.0198 5.6584
5/18/2022 1:00:00 AM 7.0136 5.4908
5/18/2022 1:15:00 AM 7.008 5.9627
5/18/2022 1:30:00 AM 7.0037 8.5338
5/18/2022 1:45:00 AM 6.9993 6.8819
5/18/2022 2:00:00 AM 6.9942 5.898
5/18/2022 2:15:00 AM 6.9909 5.6801
5/18/2022 2:30:00 AM 6.9877 5.7824
5/18/2022 2:45:00 AM 6.9888 5.6001
5/18/2022 3:00:00 AM 6.9902 5.7528
5/18/2022 3:15:00 AM 6.986 5.7059
5/18/2022 3:30:00 AM 6.9826 5.6276
5/18/2022 3:45:00 AM 6.9763 5.5848
5/18/2022 4:00:00 AM 6.9787 5.5162
5/18/2022 4:15:00 AM 6.9749 5.46
5/18/2022 4:30:00 AM 6.9701 5.4369
5/18/2022 4:45:00 AM 6.9649 5.4183
5/18/2022 5:00:00 AM 6.959 5.5414
5/18/2022 5:15:00 AM 6.9538 5.4924
5/18/2022 5:30:00 AM 6.9521 5.2594
5/18/2022 5:45:00 AM 6.944 5.2
5/18/2022 6:00:00 AM 6.9412 5.2242
5/18/2022 6:15:00 AM 6.9349 5.2483
5/18/2022 6:30:00 AM 6.9301 5.176
5/18/2022 6:45:00 AM 6.9282 5.1886
5/18/2022 7:00:00 AM 6.9285 5.0986
5/18/2022 7:15:00 AM 6.9298 4.9904
5/18/2022 7:30:00 AM 6.9321 4.9166
5/18/2022 7:45:00 AM 6.933 5.0621
5/18/2022 8:00:00 AM 6.9336 5.0429
5/18/2022 8:15:00 AM 6.9378 5.1783
5/18/2022 8:30:00 AM 6.9385 5.2035
5/18/2022 8:45:00 AM 6.9384 4.9
5/18/2022 9:00:00 AM 6.9432 4.9488
5/18/2022 9:15:00 AM 6.9441 5.7937
5/18/2022 9:30:00 AM 6.948 5.2333
5/18/2022 9:45:00 AM 6.9515 14.7724
5/18/2022 10:00:00 AM 6.9526 6.9067
5/18/2022 10:15:00 AM 6.9508 4.9651
5/18/2022 10:30:00 AM 6.9502 5.1715
5/18/2022 10:45:00 AM 6.957 4.8372
5/18/2022 11:00:00 AM 6.9682 4.7919
5/18/2022 11:15:00 AM 6.9755 4.6915
5/18/2022 11:30:00 AM 6.9834 4.5976
5/18/2022 11:45:00 AM 6.9832 4.5
5/18/2022 12:00:00 PM 7.0027 4.5651
5/18/2022 12:15:00 PM 7.012 4.662
5/18/2022 12:30:00 PM 7.02 4.4796
5/18/2022 12:45:00 PM 7.0279 4.4257
5/18/2022 1:00:00 PM 7.0354 4.5037
5/18/2022 1:15:00 PM 7.0442 4.5879
5/18/2022 1:30:00 PM 7.0528 4.4868
5/18/2022 1:45:00 PM 7.0601 4.3841
5/18/2022 2:00:00 PM 7.0619 4.369
5/18/2022 2:15:00 PM 7.0669 4.3578
5/18/2022 2:30:00 PM 7.0787 4.3695
5/18/2022 2:45:00 PM 7.0922 4.4097
5/18/2022 3:00:00 PM 7.1039 4.4671
5/18/2022 3:15:00 PM 7.1137 4.4157
5/18/2022 3:30:00 PM 7.1238 4.4233
5/18/2022 3:45:00 PM 7.1344 4.4526
5/18/2022 4:00:00 PM 7.1457 4.4337
5/18/2022 4:15:00 PM 7.1576 4.465
5/18/2022 4:30:00 PM 7.1693 4.4505
5/18/2022 4:45:00 PM 7.1797 4.4596
5/18/2022 5:00:00 PM 7.1896 4.4312
5/18/2022 5:15:00 PM 7.1966 4.4426
5/18/2022 5:30:00 PM 7.2041 4.4358
5/18/2022 5:45:00 PM 7.21 4.5
5/18/2022 6:00:00 PM 7.2127 4.4552
5/18/2022 6:15:00 PM 7.2125 4.4585
5/18/2022 6:30:00 PM 7.2128 4.4698
5/18/2022 6:45:00 PM 7.2119 4.4948
5/18/2022 7:00:00 PM 7.208 4.4753
5/18/2022 7:15:00 PM 7.2078 4.495
5/18/2022 7:30:00 PM 7.2056 4.4596
5/18/2022 7:45:00 PM 7.2029 4.5391
5/18/2022 8:00:00 PM 7.1989 4.6675
5/18/2022 8:15:00 PM 7.1928 4.5555
5/18/2022 8:30:00 PM 7.1871 4.6352
5/18/2022 8:45:00 PM 7.1862 4.6
5/18/2022 9:00:00 PM 7.1766 4.8737
5/18/2022 9:15:00 PM 7.1695 4.9251
5/18/2022 9:30:00 PM 7.1616 5.5654
5/18/2022 9:45:00 PM 7.1524 5.3554
5/18/2022 10:00:00 PM 7.145 5.1826
5/18/2022 10:15:00 PM 7.1378 5.4306
5/18/2022 10:30:00 PM 7.1311 5.2688
5/18/2022 10:45:00 PM 7.1229 5.1633
5/18/2022 11:00:00 PM 7.1156 5.1422
5/18/2022 11:15:00 PM 7.1074 5.1478
5/18/2022 11:30:00 PM 7.0992 5.1839
5/18/2022 11:45:00 PM 7.0938 5.2001
5/19/2022 12:00:00 AM 7.085 5.0981
5/19/2022 12:15:00 AM 7.0775 4.966
5/19/2022 12:30:00 AM 7.0706 5.0883
5/19/2022 12:45:00 AM 7.0625 5.0286
5/19/2022 1:00:00 AM 7.0537 5.0195
5/19/2022 1:15:00 AM 7.0447 5.1745
5/19/2022 1:30:00 AM 7.0362 5.1533
5/19/2022 1:45:00 AM 7.0272 5.2614
5/19/2022 2:00:00 AM 7.0186 5.2974
5/19/2022 2:15:00 AM 7.0092 5.4147
5/19/2022 2:30:00 AM 6.9993 5.4147
5/19/2022 2:45:00 AM 6.9972 5.4998
5/19/2022 3:00:00 AM 6.9825 6.6747
5/19/2022 3:15:00 AM 6.9737 6.3433
5/19/2022 3:30:00 AM 6.964 5.7616
5/19/2022 3:45:00 AM 6.9556 5.9368
5/19/2022 4:00:00 AM 6.9477 5.5034
5/19/2022 4:15:00 AM 6.9399 5.5183
5/19/2022 4:30:00 AM 6.9311 5.3994
5/19/2022 4:45:00 AM 6.9241 5.4233
5/19/2022 5:00:00 AM 6.9167 5.2177
5/19/2022 5:15:00 AM 6.9085 5.2957
5/19/2022 5:30:00 AM 6.9014 5.2806
5/19/2022 5:45:00 AM 6.8978 5.4
5/19/2022 6:00:00 AM 6.8868 5.2781
5/19/2022 6:15:00 AM 6.8788 5.434
5/19/2022 6:30:00 AM 6.874 5.3083
5/19/2022 6:45:00 AM 6.8678 5.1647
5/19/2022 7:00:00 AM 6.8615 5.2031
5/19/2022 7:15:00 AM 6.8539 5.1833
5/19/2022 7:30:00 AM 6.851 5.1623
5/19/2022 7:45:00 AM 6.8457 5.0791
5/19/2022 8:00:00 AM 6.8419 5.0334
5/19/2022 8:15:00 AM 6.8373 5.8193
5/19/2022 8:30:00 AM 6.8327 5.1448
5/19/2022 8:45:00 AM 6.8334 5.1
5/19/2022 9:00:00 AM 6.8265 5.0226
5/19/2022 9:15:00 AM 6.8222 5.0116
5/19/2022 9:30:00 AM 6.8208 4.9161
5/19/2022 9:45:00 AM 6.8175 4.8644
5/19/2022 10:00:00 AM 6.8154 4.8358
5/19/2022 10:15:00 AM 6.8139 4.7925
5/19/2022 10:30:00 AM 6.8097 7.9422
5/19/2022 10:45:00 AM 6.8068 8.7657
5/19/2022 11:00:00 AM 6.8107 6.7287
5/19/2022 11:15:00 AM 6.8124 6.1506
5/19/2022 11:30:00 AM 6.8109 6.108
5/19/2022 11:45:00 AM 6.8152 6.2
5/19/2022 12:00:00 PM 6.8104 5.8462
5/19/2022 12:15:00 PM 6.812 6.0029
5/19/2022 12:30:00 PM 6.8124 5.7318
5/19/2022 12:45:00 PM 6.8121 5.715
5/19/2022 1:00:00 PM 6.812 5.8389
5/19/2022 1:15:00 PM 6.812 5.7961
5/19/2022 1:30:00 PM 6.8141 5.555
5/19/2022 1:45:00 PM 6.8167 5.5251
5/19/2022 2:00:00 PM 6.8173 5.4917
5/19/2022 2:15:00 PM 6.821 5.4462
5/19/2022 2:30:00 PM 6.8222 5.8161
5/19/2022 2:45:00 PM 6.8259 6.1658
5/19/2022 3:00:00 PM 6.826 6.3925
5/19/2022 3:15:00 PM 6.8273 8.812
5/19/2022 3:30:00 PM 6.8339 8.839
5/19/2022 3:45:00 PM 6.8397 8.3228
5/19/2022 4:00:00 PM 6.8457 6.7565
5/19/2022 4:15:00 PM 6.8498 6.1363
5/19/2022 4:30:00 PM 6.8556 6.0782
5/19/2022 4:45:00 PM 6.8604 5.8915
5/19/2022 5:00:00 PM 6.8672 5.4087
5/19/2022 5:15:00 PM 6.8726 5.394
5/19/2022 5:30:00 PM 6.8803 5.2334
5/19/2022 5:45:00 PM 6.8824 5.1
5/19/2022 6:00:00 PM 6.8985 4.9855
5/19/2022 6:15:00 PM 6.9075 5.1795
5/19/2022 6:30:00 PM 6.9196 5.0121
5/19/2022 6:45:00 PM 6.9325 4.9318
5/19/2022 7:00:00 PM 6.9442 4.6869
5/19/2022 7:15:00 PM 6.9522 4.6237
5/19/2022 7:30:00 PM 6.9591 4.5358
5/19/2022 7:45:00 PM 6.9673 4.5741
5/19/2022 8:00:00 PM 6.9744 4.5216
5/19/2022 8:15:00 PM 6.9808 4.5683
5/19/2022 8:30:00 PM 6.9853 4.5893
5/19/2022 8:45:00 PM 6.986 4.7
5/19/2022 9:00:00 PM 6.9861 4.7979
5/19/2022 9:15:00 PM 6.9879 5.1189
5/19/2022 9:30:00 PM 6.9908 5.1362
5/19/2022 9:45:00 PM 6.9911 5.393
5/19/2022 10:00:00 PM 6.991 6.0879
5/19/2022 10:15:00 PM 6.9898 7.5423
5/19/2022 10:30:00 PM 6.9867 7.7529
5/19/2022 10:45:00 PM 6.9823 7.2241
5/19/2022 11:00:00 PM 6.98 8.2336
5/19/2022 11:15:00 PM 6.9749 6.8707
5/19/2022 11:30:00 PM 6.9714 5.5727
5/19/2022 11:45:00 PM 6.9678 5.5
5/20/2022 12:00:00 AM 6.9638 5.4068
5/20/2022 12:15:00 AM 6.9621 5.3446
5/20/2022 12:30:00 AM 6.9573 5.3862
5/20/2022 12:45:00 AM 6.9537 5.3434
5/20/2022 1:00:00 AM 6.9512 5.1276
5/20/2022 1:15:00 AM 6.9477 5.2631
5/20/2022 1:30:00 AM 6.9435 5.3582
5/20/2022 1:45:00 AM 6.9391 5.2698
5/20/2022 2:00:00 AM 6.9338 5.2092
5/20/2022 2:15:00 AM 6.9302 5.3169
5/20/2022 2:30:00 AM 6.9254 5.4977
5/20/2022 2:45:00 AM 6.9202 5.3001
5/20/2022 3:00:00 AM 6.9183 5.3313
5/20/2022 3:15:00 AM 6.9127 5.2038
5/20/2022 3:30:00 AM 6.9087 5.0686
5/20/2022 3:45:00 AM 6.9037 5.1399
5/20/2022 4:00:00 AM 6.8996 5.0087
5/20/2022 4:15:00 AM 6.8957 5.0277
5/20/2022 4:30:00 AM 6.8921 5.1744
5/20/2022 4:45:00 AM 6.8861 5.1993
5/20/2022 5:00:00 AM 6.8809 5.1033
5/20/2022 5:15:00 AM 6.8783 5.0991
5/20/2022 5:30:00 AM 6.8718 4.9885
5/20/2022 5:45:00 AM 6.8712 5
5/20/2022 6:00:00 AM 6.8711 4.9689
5/20/2022 6:15:00 AM 6.8674 4.9929
5/20/2022 6:30:00 AM 6.867 4.8584
5/20/2022 6:45:00 AM 6.8654 5.1224
5/20/2022 7:00:00 AM 6.8613 5.7206
5/20/2022 7:15:00 AM 6.8613 5.0385
5/20/2022 7:30:00 AM 6.8612 4.8711
5/20/2022 7:45:00 AM 6.8612 4.8875
5/20/2022 8:00:00 AM 6.8612 4.7988
5/20/2022 8:15:00 AM 6.8633 5.8114
5/20/2022 8:30:00 AM 6.866 5.063
5/20/2022 8:45:00 AM 6.8656 4.8
5/20/2022 9:00:00 AM 6.8663 4.7369
5/20/2022 9:15:00 AM 6.8705 4.6826
5/20/2022 9:30:00 AM 6.8727 4.5907
5/20/2022 9:45:00 AM 6.876 4.6222
5/20/2022 10:00:00 AM 6.8787 4.6646
5/20/2022 10:15:00 AM 6.884 4.6093
5/20/2022 10:30:00 AM 6.8912 4.4945
5/20/2022 10:45:00 AM 6.8981 4.4914
5/20/2022 11:00:00 AM 6.9068 4.4509
5/20/2022 11:15:00 AM 6.9136 4.4094
5/20/2022 11:30:00 AM 6.9186 4.4345
5/20/2022 11:45:00 AM 6.9174 4.5
5/20/2022 12:00:00 PM 6.9257 4.3765
5/20/2022 12:15:00 PM 6.931 4.4027
5/20/2022 12:30:00 PM 6.9363 4.3335
5/20/2022 12:45:00 PM 6.9427 4.3721
5/20/2022 1:00:00 PM 6.9458 4.3628
5/20/2022 1:15:00 PM 6.95 4.3648
5/20/2022 1:30:00 PM 6.958 4.4232
5/20/2022 1:45:00 PM 6.9661 6.0129
5/20/2022 2:00:00 PM 6.9744 4.4759
5/20/2022 2:15:00 PM 6.9822 4.769
5/20/2022 2:30:00 PM 6.9919 5.2648
5/20/2022 2:45:00 PM 7.0035 6.4483
5/20/2022 3:00:00 PM 7.0134 6.8188
5/20/2022 3:15:00 PM 7.0253 6.528
5/20/2022 3:30:00 PM 7.0377 6.101
5/20/2022 3:45:00 PM 7.0542 5.8148
5/20/2022 4:00:00 PM 7.0772 4.9144
5/20/2022 4:15:00 PM 7.094 4.683
5/20/2022 4:30:00 PM 7.0991 4.5753
5/20/2022 4:45:00 PM 7.1106 4.5968
5/20/2022 5:00:00 PM 7.1233 4.639
5/20/2022 5:15:00 PM 7.1395 4.8061
5/20/2022 5:30:00 PM 7.1629 4.9562
5/20/2022 5:45:00 PM 7.1708 5.1
5/20/2022 6:00:00 PM 7.1674 4.8481
5/20/2022 6:15:00 PM 7.1644 4.6598
5/20/2022 6:30:00 PM 7.1634 4.4817
5/20/2022 6:45:00 PM 7.1593 4.4818
5/20/2022 7:00:00 PM 7.1599 4.4187
5/20/2022 7:15:00 PM 7.1575 4.4089
5/20/2022 7:30:00 PM 7.1531 4.3147
5/20/2022 7:45:00 PM 7.1501 4.379
5/20/2022 8:00:00 PM 7.1491 4.4328
5/20/2022 8:15:00 PM 7.1456 4.4518
5/20/2022 8:30:00 PM 7.1422 4.4078
5/20/2022 8:45:00 PM 7.1372 4.5
5/20/2022 9:00:00 PM 7.1355 4.6995
5/20/2022 9:15:00 PM 7.1311 5.0548
5/20/2022 9:30:00 PM 7.1243 5.7827
5/20/2022 9:45:00 PM 7.117 6.0922
5/20/2022 10:00:00 PM 7.1094 5.2204
5/20/2022 10:15:00 PM 7.1037 5.0562
5/20/2022 10:30:00 PM 7.0987 5.0489
5/20/2022 10:45:00 PM 7.0918 5.1128
5/20/2022 11:00:00 PM 7.0841 5.181
5/20/2022 11:15:00 PM 7.0767 5.1229
5/20/2022 11:30:00 PM 7.0688 5.0928
5/20/2022 11:45:00 PM 7.0644 5.0999
5/21/2022 12:00:00 AM 7.0546 4.9454
5/21/2022 12:15:00 AM 7.0478 4.9937
5/21/2022 12:30:00 AM 7.0394 5.0466
5/21/2022 12:45:00 AM 7.0334 5.1982
5/21/2022 1:00:00 AM 7.0271 5.2361
5/21/2022 1:15:00 AM 7.0218 5.3449
5/21/2022 1:30:00 AM 7.0155 5.0159
5/21/2022 1:45:00 AM 7.0095 4.9927
5/21/2022 2:00:00 AM 7.0043 5.0772
5/21/2022 2:15:00 AM 7.0004 5.0199
5/21/2022 2:30:00 AM 6.9942 5.006
5/21/2022 2:45:00 AM 6.986 5.1
5/21/2022 3:00:00 AM 6.9833 5.0289
5/21/2022 3:15:00 AM 6.9789 5.0343
5/21/2022 3:30:00 AM 6.974 4.9772
5/21/2022 3:45:00 AM 6.9676 4.9757
5/21/2022 4:00:00 AM 6.9624 4.9122
5/21/2022 4:15:00 AM 6.9579 4.9157
5/21/2022 4:30:00 AM 6.9531 4.9162
5/21/2022 4:45:00 AM 6.9484 5.0037
5/21/2022 5:00:00 AM 6.9442 5.2065
5/21/2022 5:15:00 AM 6.94 5.1133
5/21/2022 5:30:00 AM 6.9375 5.0099
5/21/2022 5:45:00 AM 6.9356 5
5/21/2022 6:00:00 AM 6.9311 4.8227
5/21/2022 6:15:00 AM 6.9286 4.9143
5/21/2022 6:30:00 AM 6.9286 4.8905
5/21/2022 6:45:00 AM 6.9267 4.8518
5/21/2022 7:00:00 AM 6.9267 4.8488
5/21/2022 7:15:00 AM 6.9375 4.8137
5/21/2022 7:30:00 AM 6.9364 4.7318
5/21/2022 7:45:00 AM 6.9337 5.3365
5/21/2022 8:00:00 AM 6.9332 4.9703
5/21/2022 8:15:00 AM 6.9331 4.8553
5/21/2022 8:30:00 AM 6.935 4.723
5/21/2022 8:45:00 AM 6.9356 4.7
5/21/2022 9:00:00 AM 6.949 4.7203
5/21/2022 9:15:00 AM 6.9525 4.8958
5/21/2022 9:30:00 AM 6.9585 4.695
5/21/2022 9:45:00 AM 6.9666 5.8378
5/21/2022 10:00:00 AM 6.9751 8.1139
5/21/2022 10:15:00 AM 6.9846 5.3631
5/21/2022 10:30:00 AM 6.9961 5.0257
5/21/2022 10:45:00 AM 7.014 4.797
5/21/2022 11:00:00 AM 7.0333 4.6485
5/21/2022 11:15:00 AM 7.0371 4.9257
5/21/2022 11:30:00 AM 7.0016 4.785
5/21/2022 11:45:00 AM 6.9972 4.9
5/21/2022 12:00:00 PM 6.9952 4.9612
5/21/2022 12:15:00 PM 6.9967 4.8528
5/21/2022 12:30:00 PM 7.0015 4.748
5/21/2022 12:45:00 PM 7.0105 4.7481
5/21/2022 1:00:00 PM 7.0392 4.66
5/21/2022 1:15:00 PM 7.1178 5.3857
5/21/2022 1:30:00 PM 7.2414 4.7478
5/21/2022 1:45:00 PM 7.2766 4.7831
5/21/2022 2:00:00 PM 7.2987 5.8371
5/21/2022 2:15:00 PM 7.3204 6.5003
5/21/2022 2:30:00 PM 7.343 5.7074
5/21/2022 2:45:00 PM 7.496 5.2818
5/21/2022 3:00:00 PM 7.4624 5.2554
5/21/2022 3:15:00 PM 7.4605 5.4518
5/21/2022 3:30:00 PM 7.4467 5.8976
5/21/2022 3:45:00 PM 7.4518 6.2275
5/21/2022 4:00:00 PM 7.4715 6.7499
5/21/2022 4:15:00 PM 7.459 7.2512
5/21/2022 4:30:00 PM 7.4596 7.3753
5/21/2022 4:45:00 PM 7.5562 6.5674
5/21/2022 5:00:00 PM 7.498 5.825
5/21/2022 5:15:00 PM 7.4975 5.611
5/21/2022 5:30:00 PM 7.5111 5.3072
5/21/2022 5:45:00 PM 7.504 5.3
5/21/2022 6:00:00 PM 7.5135 5.8237
5/21/2022 6:15:00 PM 7.515 5.8262
5/21/2022 6:30:00 PM 7.5317 5.4457
5/21/2022 6:45:00 PM 7.5255 5.3498
5/21/2022 7:00:00 PM 7.5853 5.2456
5/21/2022 7:15:00 PM 7.5544 5.1137
5/21/2022 7:30:00 PM 7.512 5.0178
5/21/2022 7:45:00 PM 7.4919 5.0921
5/21/2022 8:00:00 PM 7.4894 4.9031
5/21/2022 8:15:00 PM 7.4851 4.959
5/21/2022 8:30:00 PM 7.4711 5.1133
5/21/2022 8:45:00 PM 7.4886 5.1
5/21/2022 9:00:00 PM 7.4527 5.5652
5/21/2022 9:15:00 PM 7.4372 5.5706
5/21/2022 9:30:00 PM 7.4343 5.5615
5/21/2022 9:45:00 PM 7.4238 5.4652
5/21/2022 10:00:00 PM 7.4036 5.428
5/21/2022 10:15:00 PM 7.3992 5.9536
5/21/2022 10:30:00 PM 7.3795 5.8081
5/21/2022 10:45:00 PM 7.3692 5.5998
5/21/2022 11:00:00 PM 7.3703 5.6706
5/21/2022 11:15:00 PM 7.3488 5.8475
5/21/2022 11:30:00 PM 7.3344 5.8678
5/21/2022 11:45:00 PM 7.3248 5.7
5/22/2022 12:00:00 AM 7.328 5.4331
5/22/2022 12:15:00 AM 7.3493 5.3466
5/22/2022 12:30:00 AM 7.3008 5.2362
5/22/2022 12:45:00 AM 7.2703 5.1817
5/22/2022 1:00:00 AM 7.255 5.1721
5/22/2022 1:15:00 AM 7.2394 5.3292
5/22/2022 1:30:00 AM 7.226 5.3241
5/22/2022 1:45:00 AM 7.2121 5.3601
5/22/2022 2:00:00 AM 7.1994 5.775
5/22/2022 2:15:00 AM 7.1862 5.6429
5/22/2022 2:30:00 AM 7.1715 5.548
5/22/2022 2:45:00 AM 7.1638 5.6
5/22/2022 3:00:00 AM 7.1474 5.4974
5/22/2022 3:15:00 AM 7.1373 5.8578
5/22/2022 3:30:00 AM 7.1261 5.9464
5/22/2022 3:45:00 AM 7.1104 5.6332
5/22/2022 4:00:00 AM 7.0973 5.6277
5/22/2022 4:15:00 AM 7.0862 5.7619
5/22/2022 4:30:00 AM 7.0766 5.6563
5/22/2022 4:45:00 AM 7.0661 5.5277
5/22/2022 5:00:00 AM 7.0578 5.4342
5/22/2022 5:15:00 AM 7.0529 5.4662
5/22/2022 5:30:00 AM 7.0476 5.4311
5/22/2022 5:45:00 AM 7.0434 5.5
5/22/2022 6:00:00 AM 7.0331 5.3535
5/22/2022 6:15:00 AM 7.0282 5.499
5/22/2022 6:30:00 AM 7.0204 5.4371
5/22/2022 6:45:00 AM 7.0119 5.421
5/22/2022 7:00:00 AM 7.0058 5.3716
5/22/2022 7:15:00 AM 7.0051 5.4335
5/22/2022 7:30:00 AM 6.9959 5.4358
5/22/2022 7:45:00 AM 6.9951 5.507
5/22/2022 8:00:00 AM 6.9917 5.3136
5/22/2022 8:15:00 AM 6.9974 5.2981
5/22/2022 8:30:00 AM 6.9969 5.2065
5/22/2022 8:45:00 AM 6.9888 5.2
5/22/2022 9:00:00 AM 6.9975 5.1282
5/22/2022 9:15:00 AM 7.0024 5.8468
5/22/2022 9:30:00 AM 7.0219 5.447
5/22/2022 9:45:00 AM 7.043 5.3208
5/22/2022 10:00:00 AM 7.039 5.2491
5/22/2022 10:15:00 AM 7.1037 5.2345
5/22/2022 10:30:00 AM 7.1184 5.2453
5/22/2022 10:45:00 AM 7.0966 5.349
5/22/2022 11:00:00 AM 7.0875 5.253
5/22/2022 11:15:00 AM 7.099 5.3649
5/22/2022 11:30:00 AM 7.1343 5.4347
5/22/2022 11:45:00 AM 7.147 5.4
5/22/2022 12:00:00 PM 7.1883 5.1516
5/22/2022 12:15:00 PM 7.2586 5.2989
5/22/2022 12:30:00 PM 7.2377 5.108
5/22/2022 12:45:00 PM 7.2603 5.1716
5/22/2022 1:00:00 PM 7.303 5.3929
5/22/2022 1:15:00 PM 7.3564 5.5174
5/22/2022 1:30:00 PM 7.3841 5.879
5/22/2022 1:45:00 PM 7.3695 6.166
5/22/2022 2:00:00 PM 7.4153 5.3696
5/22/2022 2:15:00 PM 7.4614 5.3742
5/22/2022 2:30:00 PM 7.4857 5.5952
5/22/2022 2:45:00 PM 7.5111 6.0329
5/22/2022 3:00:00 PM 7.5441 5.6519
5/22/2022 3:15:00 PM 7.5599 5.4743
5/22/2022 3:30:00 PM 7.5654 7.8675
5/22/2022 3:45:00 PM 7.5437 8.0748
5/22/2022 4:00:00 PM 7.5353 8.6577
5/22/2022 4:15:00 PM 7.5099 7.7289
5/22/2022 4:30:00 PM 7.4901 7.1917
5/22/2022 4:45:00 PM 7.4833 5.7995
5/22/2022 5:00:00 PM 7.8566 5.5437
5/22/2022 5:15:00 PM 8.0271 5.9409
5/22/2022 5:30:00 PM 7.981 5.8822
5/22/2022 5:45:00 PM 7.9744 6
5/22/2022 6:00:00 PM 7.9328 8.0768
5/22/2022 6:15:00 PM 7.5363 7.3099
5/22/2022 6:30:00 PM 7.338 6.9888
5/22/2022 6:45:00 PM 7.3767 7.3372
5/22/2022 7:00:00 PM 7.3427 7.6658
5/22/2022 7:15:00 PM 7.2736 7.927
5/22/2022 7:30:00 PM 7.2011 8.1478
5/22/2022 7:45:00 PM 7.1875 9.7456
5/22/2022 8:00:00 PM 7.1817 8.6073
5/22/2022 8:15:00 PM 7.1789 20.1337
5/22/2022 8:30:00 PM 7.1828 10.4855
5/22/2022 8:45:00 PM 7.1834 11
5/22/2022 9:00:00 PM 7.1764 12.3236
5/22/2022 9:15:00 PM 7.1628 43.6117
5/22/2022 9:30:00 PM 7.1465 12.1675
5/22/2022 9:45:00 PM 7.1293 12.2988
5/22/2022 10:00:00 PM 7.1172 11.1127
5/22/2022 10:15:00 PM 7.1078 9.5445
5/22/2022 10:30:00 PM 7.098 8.7151
5/22/2022 10:45:00 PM 7.0873 8.6521
5/22/2022 11:00:00 PM 7.0781 9.8768
5/22/2022 11:15:00 PM 7.0707 9.6447
5/22/2022 11:30:00 PM 7.0642 10.1058
5/22/2022 11:45:00 PM 7.0644 9.8
5/23/2022 12:00:00 AM 7.0485 7.4426
5/23/2022 12:15:00 AM 7.0409 7.6137
5/23/2022 12:30:00 AM 7.0319 7.7543
5/23/2022 12:45:00 AM 7.0255 7.4797
5/23/2022 1:00:00 AM 7.0173 6.9513
5/23/2022 1:15:00 AM 7.0127 6.7251
5/23/2022 1:30:00 AM 7.0065 6.5369
5/23/2022 1:45:00 AM 6.9988 6.275
5/23/2022 2:00:00 AM 6.9914 6.1468
5/23/2022 2:15:00 AM 6.9854 5.9844
5/23/2022 2:30:00 AM 6.9743 6.094
5/23/2022 2:45:00 AM 6.9678 6.1
5/23/2022 3:00:00 AM 6.9602 5.8037
5/23/2022 3:15:00 AM 6.9534 5.7211
5/23/2022 3:30:00 AM 6.9467 5.6836
5/23/2022 3:45:00 AM 6.9404 5.6683
5/23/2022 4:00:00 AM 6.9372 5.6462
5/23/2022 4:15:00 AM 6.9311 5.7157
5/23/2022 4:30:00 AM 6.9247 5.6337
5/23/2022 4:45:00 AM 6.9222 5.6795
5/23/2022 5:00:00 AM 6.9183 5.6389
5/23/2022 5:15:00 AM 6.9143 5.6209
5/23/2022 5:30:00 AM 6.9101 5.4654
5/23/2022 5:45:00 AM 6.909 5.5
5/23/2022 6:00:00 AM 6.8992 5.4386
5/23/2022 6:15:00 AM 6.8953 5.4732
5/23/2022 6:30:00 AM 6.8949 5.419
5/23/2022 6:45:00 AM 6.8909 5.3534
5/23/2022 7:00:00 AM 6.8894 5.286
5/23/2022 7:15:00 AM 6.8889 5.3516
5/23/2022 7:30:00 AM 6.8897 5.2895
5/23/2022 7:45:00 AM 6.8898 5.2888
5/23/2022 8:00:00 AM 6.8898 5.2292
5/23/2022 8:15:00 AM 6.8924 5.2431
5/23/2022 8:30:00 AM 6.8949 5.2135
5/23/2022 8:45:00 AM 6.8936 5.2
5/23/2022 9:00:00 AM 6.8962 5.4094
5/23/2022 9:15:00 AM 6.8995 5.7637
5/23/2022 9:30:00 AM 6.9009 18.7321
5/23/2022 9:45:00 AM 6.9041 6.0084
5/23/2022 10:00:00 AM 6.9045 5.5248
5/23/2022 10:15:00 AM 6.912 5.4227
5/23/2022 10:30:00 AM 6.9187 5.3951
5/23/2022 10:45:00 AM 6.925 5.3919
5/23/2022 11:00:00 AM 6.931 5.3167
5/23/2022 11:15:00 AM 6.9378 5.3864
5/23/2022 11:30:00 AM 6.9428 5.2333
5/23/2022 11:45:00 AM 6.9426 5.2
5/23/2022 12:00:00 PM 6.9574 5.235
5/23/2022 12:15:00 PM 6.9664 5.2889
5/23/2022 12:30:00 PM 6.975 11.6289
5/23/2022 12:45:00 PM 6.9846 6.5492
5/23/2022 1:00:00 PM 6.9939 5.6178
5/23/2022 1:15:00 PM 7.0012 5.6211
5/23/2022 1:30:00 PM 7.0088 5.5035
5/23/2022 1:45:00 PM 7.0166 5.544
5/23/2022 2:00:00 PM 7.0233 5.5097
5/23/2022 2:15:00 PM 7.0311 5.5364
5/23/2022 2:30:00 PM 7.0375 5.5069
5/23/2022 2:45:00 PM 7.045 5.6164
5/23/2022 3:00:00 PM 7.0497 5.5659
5/23/2022 3:15:00 PM 7.056 5.6764
5/23/2022 3:30:00 PM 7.0622 5.3601
5/23/2022 3:45:00 PM 7.0659 5.8255
5/23/2022 4:00:00 PM 7.0738 5.8247
5/23/2022 4:15:00 PM 7.0792 5.8581
5/23/2022 4:30:00 PM 7.0865 5.9145
5/23/2022 4:45:00 PM 7.0955 5.7811
5/23/2022 5:00:00 PM 7.1037 5.7152
5/23/2022 5:15:00 PM 7.1075 5.8162
5/23/2022 5:30:00 PM 7.1112 5.7744
5/23/2022 5:45:00 PM 7.1176 5.8
5/23/2022 6:00:00 PM 7.1271 6.2243
5/23/2022 6:15:00 PM 7.133 5.93
5/23/2022 6:30:00 PM 7.1387 5.9832
5/23/2022 6:45:00 PM 7.1444 6.0764
5/23/2022 7:00:00 PM 7.145 5.9467
5/23/2022 7:15:00 PM 7.145 6.0077
5/23/2022 7:30:00 PM 7.1406 6.0503
5/23/2022 7:45:00 PM 7.1385 6.1037
5/23/2022 8:00:00 PM 7.1346 6.4734
5/23/2022 8:15:00 PM 7.1306 6.2152
5/23/2022 8:30:00 PM 7.126 6.2009
5/23/2022 8:45:00 PM 7.1176 6.3
5/23/2022 9:00:00 PM 7.1175 6.3505
5/23/2022 9:15:00 PM 7.1134 6.468
5/23/2022 9:30:00 PM 7.107 6.3862
5/23/2022 9:45:00 PM 7.1019 6.575
5/23/2022 10:00:00 PM 7.0947 6.8441
5/23/2022 10:15:00 PM 7.0884 6.9148
5/23/2022 10:30:00 PM 7.0809 7.9297
5/23/2022 10:45:00 PM 7.0739 6.9998
5/23/2022 11:00:00 PM 7.0652 7.1606
5/23/2022 11:15:00 PM 7.0596 6.9298
5/23/2022 11:30:00 PM 7.0539 6.6986
5/23/2022 11:45:00 PM 7.0462 6.6
5/24/2022 12:00:00 AM 7.04 6.3168
5/24/2022 12:15:00 AM 7.0329 6.5247
5/24/2022 12:30:00 AM 7.0261 6.8052
5/24/2022 12:45:00 AM 7.0204 6.5949
5/24/2022 1:00:00 AM 7.0125 6.4818
5/24/2022 1:15:00 AM 7.0065 6.5072
5/24/2022 1:30:00 AM 7.0007 6.346
5/24/2022 1:45:00 AM 6.9955 6.2964
5/24/2022 2:00:00 AM 6.9889 6.5918
5/24/2022 2:15:00 AM 6.9827 6.4368
5/24/2022 2:30:00 AM 6.9754 6.494
5/24/2022 2:45:00 AM 6.9706 6.4
5/24/2022 3:00:00 AM 6.9628 6.1892
5/24/2022 3:15:00 AM 6.9557 6.3199
5/24/2022 3:30:00 AM 6.9491 6.2108
5/24/2022 3:45:00 AM 6.943 6.2289
5/24/2022 4:00:00 AM 6.936 6.1843
5/24/2022 4:15:00 AM 6.9286 6.1457
5/24/2022 4:30:00 AM 6.9216 6.2237
5/24/2022 4:45:00 AM 6.9163 6.1435
5/24/2022 5:00:00 AM 6.9102 5.9637
5/24/2022 5:15:00 AM 6.9034 5.6482
5/24/2022 5:30:00 AM 6.8979 5.5385
5/24/2022 5:45:00 AM 6.895 5.4
5/24/2022 6:00:00 AM 6.8877 7.1604
5/24/2022 6:15:00 AM 6.8837 5.7697
5/24/2022 6:30:00 AM 6.8808 5.4422
5/24/2022 6:45:00 AM 6.8771 5.2886
5/24/2022 7:00:00 AM 6.875 5.1334
5/24/2022 7:15:00 AM 6.8709 5.0808
5/24/2022 7:30:00 AM 6.871 5.0345
5/24/2022 7:45:00 AM 6.8695 5.0609
5/24/2022 8:00:00 AM 6.8703 5.0088
5/24/2022 8:15:00 AM 6.8707 5.0096
5/24/2022 8:30:00 AM 6.8718 4.9619
5/24/2022 8:45:00 AM 6.8782 4.9
5/24/2022 9:00:00 AM 6.8781 4.859
5/24/2022 9:15:00 AM 6.8808 4.8486
5/24/2022 9:30:00 AM 6.8843 4.8635
5/24/2022 9:45:00 AM 6.8887 4.8554
5/24/2022 10:00:00 AM 6.8938 4.7897
5/24/2022 10:15:00 AM 6.9001 4.7797
5/24/2022 10:30:00 AM 6.9065 4.7513
5/24/2022 10:45:00 AM 6.9115 6.2343
5/24/2022 11:00:00 AM 6.9187 5.0211
5/24/2022 11:15:00 AM 6.9285 4.774
5/24/2022 11:30:00 AM 6.9378 4.6446
5/24/2022 11:45:00 AM 6.944 4.6
5/24/2022 12:00:00 PM 6.9545 4.6593
5/24/2022 12:15:00 PM 6.9616 4.6279
5/24/2022 12:30:00 PM 6.9691 4.5454
5/24/2022 12:45:00 PM 6.9757 4.5594
5/24/2022 1:00:00 PM 6.9836 4.5386
5/24/2022 1:15:00 PM 6.991 4.5256
5/24/2022 1:30:00 PM 6.9993 4.5307
5/24/2022 1:45:00 PM 7.0078 4.5623
5/24/2022 2:00:00 PM 7.0164 4.5415
5/24/2022 2:15:00 PM 7.0237 4.4657
5/24/2022 2:30:00 PM 7.0319 4.4415
5/24/2022 2:45:00 PM 7.0381 4.4762
5/24/2022 3:00:00 PM 7.0459 4.5169
5/24/2022 3:15:00 PM 7.0551 4.5229
5/24/2022 3:30:00 PM 7.064 4.4534
5/24/2022 3:45:00 PM 7.074 4.4483
5/24/2022 4:00:00 PM 7.0848 4.4345
5/24/2022 4:15:00 PM 7.0927 4.4557
5/24/2022 4:30:00 PM 7.102 4.4467
5/24/2022 4:45:00 PM 7.1108 4.4602
5/24/2022 5:00:00 PM 7.1194 4.6008
5/24/2022 5:15:00 PM 7.1299 4.8497
5/24/2022 5:30:00 PM 7.1378 4.7387
5/24/2022 5:45:00 PM 7.1456 4.8
5/24/2022 6:00:00 PM 7.1507 4.7432
5/24/2022 6:15:00 PM 7.1558 4.8604
5/24/2022 6:30:00 PM 7.1631 4.8757
5/24/2022 6:45:00 PM 7.1707 28.9434
5/24/2022 7:00:00 PM 7.174 5.9676
5/24/2022 7:15:00 PM 7.1756 5.2161
5/24/2022 7:30:00 PM 7.1771 5.1113
5/24/2022 7:45:00 PM 7.1767 5.9396
5/24/2022 8:00:00 PM 7.1743 6.2491
5/24/2022 8:15:00 PM 7.1719 6.0127
5/24/2022 8:30:00 PM 7.1665 6.0947
5/24/2022 8:45:00 PM 7.1652 6.1
5/24/2022 9:00:00 PM 7.1508 6.4078
5/24/2022 9:15:00 PM 7.1424 6.3009
5/24/2022 9:30:00 PM 7.1352 6.007
5/24/2022 9:45:00 PM 7.1274 5.9972
5/24/2022 10:00:00 PM 7.1224 6.2376
5/24/2022 10:15:00 PM 7.115 6.2232
5/24/2022 10:30:00 PM 7.1085 6.325
5/24/2022 10:45:00 PM 7.102 6.1382
5/24/2022 11:00:00 PM 7.0958 5.8056
5/24/2022 11:15:00 PM 7.0894 5.8631
5/24/2022 11:30:00 PM 7.0828 5.8752
5/24/2022 11:45:00 PM 7.077 5.9
5/25/2022 12:00:00 AM 7.0692 6.0322
5/25/2022 12:15:00 AM 7.0623 5.949
5/25/2022 12:30:00 AM 7.056 5.8372
5/25/2022 12:45:00 AM 7.0496 5.9847
5/25/2022 1:00:00 AM 7.0414 5.7997
5/25/2022 1:15:00 AM 7.0345 5.8391
5/25/2022 1:30:00 AM 7.0281 5.6568
5/25/2022 1:45:00 AM 7.0231 5.5947
5/25/2022 2:00:00 AM 7.0172 5.5666
5/25/2022 2:15:00 AM 7.0111 5.5261
5/25/2022 2:30:00 AM 7.0048 5.5411
5/25/2022 2:45:00 AM 7.0056 5.8
5/25/2022 3:00:00 AM 6.9942 5.4811
5/25/2022 3:15:00 AM 6.9875 5.5815
5/25/2022 3:30:00 AM 6.9811 5.6607
5/25/2022 3:45:00 AM 6.9731 5.6004
5/25/2022 4:00:00 AM 6.9648 5.549
5/25/2022 4:15:00 AM 6.9583 5.5452
5/25/2022 4:30:00 AM 6.953 5.4909
5/25/2022 4:45:00 AM 6.9463 5.4746
5/25/2022 5:00:00 AM 6.9387 5.6065
5/25/2022 5:15:00 AM 6.9325 5.501
5/25/2022 5:30:00 AM 6.927 5.3472
5/25/2022 5:45:00 AM 6.9244 5.4
5/25/2022 6:00:00 AM 6.9179 5.3196
5/25/2022 6:15:00 AM 6.9125 5.1841
5/25/2022 6:30:00 AM 6.9086 5.1263
5/25/2022 6:45:00 AM 6.9046 5.0767
5/25/2022 7:00:00 AM 6.9 4.7746
5/25/2022 7:15:00 AM 6.8977 4.7293
5/25/2022 7:30:00 AM 6.8942 4.7491
5/25/2022 7:45:00 AM 6.8915 4.6703
5/25/2022 8:00:00 AM 6.89 4.6342
5/25/2022 8:15:00 AM 6.891 4.7058
5/25/2022 8:30:00 AM 6.8928 4.7435
5/25/2022 8:45:00 AM 6.895 4.7
5/25/2022 9:00:00 AM 6.8978 4.7269
5/25/2022 9:15:00 AM 6.9035 4.7319
5/25/2022 9:30:00 AM 6.9093 4.6461
5/25/2022 9:45:00 AM 6.9157 4.6484
5/25/2022 10:00:00 AM 6.922 4.6113
5/25/2022 10:15:00 AM 6.9316 4.5496
5/25/2022 10:30:00 AM 6.9414 4.6053
5/25/2022 10:45:00 AM 6.9543 4.6351
5/25/2022 11:00:00 AM 6.9691 4.6235
5/25/2022 11:15:00 AM 6.9827 4.5164
5/25/2022 11:30:00 AM 6.9992 4.5163
5/25/2022 11:45:00 AM 7.0042 4.5
5/25/2022 12:00:00 PM 7.0294 4.8457
5/25/2022 12:15:00 PM 7.0448 4.8141
5/25/2022 12:30:00 PM 7.0597 4.5643
5/25/2022 12:45:00 PM 7.0774 4.4698
5/25/2022 1:00:00 PM 7.0946 4.4761
5/25/2022 1:15:00 PM 7.1049 4.4713
5/25/2022 1:30:00 PM 7.1127 4.4294
5/25/2022 1:45:00 PM 7.1262 4.6372
5/25/2022 2:00:00 PM 7.1467 5.3147
5/25/2022 2:15:00 PM 7.1641 5.335
5/25/2022 2:30:00 PM 7.1787 5.272
5/25/2022 2:45:00 PM 7.1966 4.9768
5/25/2022 3:00:00 PM 7.2152 4.8312
5/25/2022 3:15:00 PM 7.2356 4.7103
5/25/2022 3:30:00 PM 7.2473 4.6184
5/25/2022 3:45:00 PM 7.2564 4.5444
5/25/2022 4:00:00 PM 7.2686 4.5464
5/25/2022 4:15:00 PM 7.2767 4.5336
5/25/2022 4:30:00 PM 7.2829 4.4757
5/25/2022 4:45:00 PM 7.2934 4.4552
5/25/2022 5:00:00 PM 7.3055 4.4427
5/25/2022 5:15:00 PM 7.3104 4.3854
5/25/2022 5:30:00 PM 7.316 4.4605
5/25/2022 5:45:00 PM 7.3178 4.6
5/25/2022 6:00:00 PM 7.327 5.3119
5/25/2022 6:15:00 PM 7.3328 5.6703
5/25/2022 6:30:00 PM 7.3393 5.3572
5/25/2022 6:45:00 PM 7.3429 5.23
5/25/2022 7:00:00 PM 7.3475 5.2909
5/25/2022 7:15:00 PM 7.3479 5.2344
5/25/2022 7:30:00 PM 7.3478 5.2088
5/25/2022 7:45:00 PM 7.3451 5.118
5/25/2022 8:00:00 PM 7.3404 5.0793
5/25/2022 8:15:00 PM 7.3354 5.1918
5/25/2022 8:30:00 PM 7.3262 5.1269
5/25/2022 8:45:00 PM 7.3262 5.2
5/25/2022 9:00:00 PM 7.3054 5.2816
5/25/2022 9:15:00 PM 7.2986 5.4392
5/25/2022 9:30:00 PM 7.2877 5.5941
5/25/2022 9:45:00 PM 7.2749 5.4946
5/25/2022 10:00:00 PM 7.2618 5.3803
5/25/2022 10:15:00 PM 7.252 5.4811
5/25/2022 10:30:00 PM 7.2379 5.8101
5/25/2022 10:45:00 PM 7.2251 5.6501
5/25/2022 11:00:00 PM 7.2113 5.9143
5/25/2022 11:15:00 PM 7.1975 6.042
5/25/2022 11:30:00 PM 7.1849 5.7636
5/25/2022 11:45:00 PM 7.1806 5.7
5/26/2022 12:00:00 AM 7.1605 5.9766
5/26/2022 12:15:00 AM 7.1485 5.9841
5/26/2022 12:30:00 AM 7.1357 6.0555
5/26/2022 12:45:00 AM 7.1248 6.3914
5/26/2022 1:00:00 AM 7.1155 6.938
5/26/2022 1:15:00 AM 7.1033 6.9423
5/26/2022 1:30:00 AM 7.0915 6.8485
5/26/2022 1:45:00 AM 7.0801 6.7534
5/26/2022 2:00:00 AM 7.0718 6.2215
5/26/2022 2:15:00 AM 7.0625 6.3366
5/26/2022 2:30:00 AM 7.048 8.2206
5/26/2022 2:45:00 AM 7.0322 10.9
5/26/2022 3:00:00 AM 7.0244 9.5056
5/26/2022 3:15:00 AM 7.0136 8.7003
5/26/2022 3:30:00 AM 7.0023 8.3006
5/26/2022 3:45:00 AM 6.9934 7.4731
5/26/2022 4:00:00 AM 6.9846 7.5003
5/26/2022 4:15:00 AM 6.9771 7.4003
5/26/2022 4:30:00 AM 6.9695 7.1769
5/26/2022 4:45:00 AM 6.9632 6.9368
5/26/2022 5:00:00 AM 6.9565 6.6575
5/26/2022 5:15:00 AM 6.9498 6.5492
5/26/2022 5:30:00 AM 6.9443 6.3941
5/26/2022 5:45:00 AM 6.9398 6.4
5/26/2022 6:00:00 AM 6.931 6.2519
5/26/2022 6:15:00 AM 6.9246 6.1271
5/26/2022 6:30:00 AM 6.9187 6.2073
5/26/2022 6:45:00 AM 6.9134 6.1198
5/26/2022 7:00:00 AM 6.9017 5.9614
5/26/2022 7:15:00 AM 6.8937 5.3938
5/26/2022 7:30:00 AM 6.8906 5.3107
5/26/2022 7:45:00 AM 6.8928 5.3059
5/26/2022 8:00:00 AM 6.8961 5.2651
5/26/2022 8:15:00 AM 6.899 5.1637
5/26/2022 8:30:00 AM 6.8992 5.0579
5/26/2022 8:45:00 AM 6.9034 5
5/26/2022 9:00:00 AM 6.9122 5.3007
5/26/2022 9:15:00 AM 6.9179 5.3459
5/26/2022 9:30:00 AM 6.9222 5.5734
5/26/2022 9:45:00 AM 6.9284 6.3133
5/26/2022 10:00:00 AM 6.9348 7.0402
5/26/2022 10:15:00 AM 6.9426 6.6595
5/26/2022 10:30:00 AM 6.952 5.8121
5/26/2022 10:45:00 AM 6.9625 5.5972
5/26/2022 11:00:00 AM 6.9735 6.0136
5/26/2022 11:15:00 AM 6.9853 6.6282
5/26/2022 11:30:00 AM 6.9966 7.0193
5/26/2022 11:45:00 AM 6.9972 7.2
5/26/2022 12:00:00 PM 7.0132 8.6686
5/26/2022 12:15:00 PM 7.0239 7.332
5/26/2022 12:30:00 PM 7.036 6.6509
5/26/2022 12:45:00 PM 7.0505 6.4133
5/26/2022 1:00:00 PM 7.0627 6.2655
5/26/2022 1:15:00 PM 7.0744 6.3228
5/26/2022 1:30:00 PM 7.0893 20.578
5/26/2022 1:45:00 PM 7.0866 35.7981
5/26/2022 2:00:00 PM 7.0729 41.1002
5/26/2022 2:15:00 PM 7.0499 52.5441
5/26/2022 2:30:00 PM 7.0371 43.4442
5/26/2022 2:45:00 PM 7.0532 24.7447
5/26/2022 3:00:00 PM 7.077 17.2824
5/26/2022 3:15:00 PM 7.0909 15.6878
5/26/2022 3:30:00 PM 7.118 11.8985
5/26/2022 3:45:00 PM 7.1454 10.2329
5/26/2022 4:00:00 PM 7.1779 8.859
5/26/2022 4:15:00 PM 7.2126 7.5215
5/26/2022 4:30:00 PM 7.2403 6.8818
5/26/2022 4:45:00 PM 7.2598 7.2572
5/26/2022 5:00:00 PM 7.2696 8.4307
5/26/2022 5:15:00 PM 7.2773 8.8268
5/26/2022 5:30:00 PM 7.2874 7.4652
5/26/2022 5:45:00 PM 7.294 6.9
5/26/2022 6:00:00 PM 7.3066 6.4251
5/26/2022 6:15:00 PM 7.312 6.1513
5/26/2022 6:30:00 PM 7.3163 6.0461
5/26/2022 6:45:00 PM 7.3177 5.9197
5/26/2022 7:00:00 PM 7.319 5.6778
5/26/2022 7:15:00 PM 7.3152 5.6708
5/26/2022 7:30:00 PM 7.3118 5.6838
5/26/2022 7:45:00 PM 7.3041 5.5651
5/26/2022 8:00:00 PM 7.2979 5.7194
5/26/2022 8:15:00 PM 7.2933 5.8767
5/26/2022 8:30:00 PM 7.2879 5.7238
5/26/2022 8:45:00 PM 7.2828 5.7
5/26/2022 9:00:00 PM 7.2732 6.1054
5/26/2022 9:15:00 PM 7.2677 6.3228
5/26/2022 9:30:00 PM 7.2612 6.2306
5/26/2022 9:45:00 PM 7.251 6.3052
5/26/2022 10:00:00 PM 7.2444 6.2801
5/26/2022 10:15:00 PM 7.2404 6.3743
5/26/2022 10:30:00 PM 7.236 7.1547
5/26/2022 10:45:00 PM 7.2212 8.3637
5/26/2022 11:00:00 PM 7.2149 7.5198
5/26/2022 11:15:00 PM 7.2028 7.1434
5/26/2022 11:30:00 PM 7.1876 6.9554
5/26/2022 11:45:00 PM 7.1792 6.9
5/27/2022 12:00:00 AM 7.1524 7.0071
5/27/2022 12:15:00 AM 7.1363 6.8922
5/27/2022 12:30:00 AM 7.1209 6.891
5/27/2022 12:45:00 AM 7.109 6.8011
5/27/2022 1:00:00 AM 7.0967 6.8279
5/27/2022 1:15:00 AM 7.0856 6.7905
5/27/2022 1:30:00 AM 7.0733 7.0066
5/27/2022 1:45:00 AM 7.0611 6.889
5/27/2022 2:00:00 AM 7.0502 6.8606
5/27/2022 2:15:00 AM 7.0398 6.7542
5/27/2022 2:30:00 AM 7.0286 6.8269
5/27/2022 2:45:00 AM 7.0252 6.7
5/27/2022 3:00:00 AM 7.0048 6.773
5/27/2022 3:15:00 AM 6.9943 6.6229
5/27/2022 3:30:00 AM 6.9839 6.5138
5/27/2022 3:45:00 AM 6.9726 6.4751
5/27/2022 4:00:00 AM 6.9634 6.4618
5/27/2022 4:15:00 AM 6.9524 6.5507
5/27/2022 4:30:00 AM 6.9412 6.5308
5/27/2022 4:45:00 AM 6.9315 6.3662
5/27/2022 5:00:00 AM 6.9225 6.2217
5/27/2022 5:15:00 AM 6.9157 6.2513
5/27/2022 5:30:00 AM 6.9059 6.1555
5/27/2022 5:45:00 AM 6.9006 6.2001
5/27/2022 6:00:00 AM 6.8904 6.2898
5/27/2022 6:15:00 AM 6.882 6.3998
5/27/2022 6:30:00 AM 6.8728 6.0686
5/27/2022 6:45:00 AM 6.8648 5.7198
5/27/2022 7:00:00 AM 6.8579 5.6418
5/27/2022 7:15:00 AM 6.8531 5.6016
5/27/2022 7:30:00 AM 6.8505 5.553
5/27/2022 7:45:00 AM 6.8468 5.5446
5/27/2022 8:00:00 AM 6.8437 5.5024
5/27/2022 8:15:00 AM 6.8414 5.5273
5/27/2022 8:30:00 AM 6.8419 6.7074
5/27/2022 8:45:00 AM 6.8474 6.9
5/27/2022 9:00:00 AM 6.8443 5.8365
5/27/2022 9:15:00 AM 6.8453 5.9257
5/27/2022 9:30:00 AM 6.8471 16.8722
5/27/2022 9:45:00 AM 6.8491 7.2217
5/27/2022 10:00:00 AM 6.8549 5.7978
5/27/2022 10:15:00 AM 6.8599 6.1849
5/27/2022 10:30:00 AM 6.867 6.4691
5/27/2022 10:45:00 AM 6.8745 6.2177
5/27/2022 11:00:00 AM 6.8831 6.156
5/27/2022 11:15:00 AM 6.8912 6.19
5/27/2022 11:30:00 AM 6.902 6.0048
5/27/2022 11:45:00 AM 6.9076 5.9
5/27/2022 12:00:00 PM 6.93 5.7425
5/27/2022 12:15:00 PM 6.945 5.5682
5/27/2022 12:30:00 PM 6.9602 5.609
5/27/2022 12:45:00 PM 6.9734 5.6213
5/27/2022 1:00:00 PM 6.988 5.484
5/27/2022 1:15:00 PM 7.0029 5.5713
5/27/2022 1:30:00 PM 7.015 5.6503
5/27/2022 1:45:00 PM 7.028 5.548
5/27/2022 2:00:00 PM 7.04 5.4285
5/27/2022 2:15:00 PM 7.0513 5.3901
5/27/2022 2:30:00 PM 7.0634 5.3668
5/27/2022 2:45:00 PM 7.0752 5.4752
5/27/2022 3:00:00 PM 7.0896 5.8308
5/27/2022 3:15:00 PM 7.1036 5.8763
5/27/2022 3:30:00 PM 7.1183 5.8389
5/27/2022 3:45:00 PM 7.1341 5.7339
5/27/2022 4:00:00 PM 7.1415 5.8232
5/27/2022 4:15:00 PM 7.1512 5.7475
5/27/2022 4:30:00 PM 7.1651 5.7131
5/27/2022 4:45:00 PM 7.1782 5.6488
5/27/2022 5:00:00 PM 7.1903 5.7554
5/27/2022 5:15:00 PM 7.1991 6.3765
5/27/2022 5:30:00 PM 7.2042 6.6031
5/27/2022 5:45:00 PM 7.2086 6.7
5/27/2022 6:00:00 PM 7.2282 5.9163
5/27/2022 6:15:00 PM 7.2395 6.3025
5/27/2022 6:30:00 PM 7.2518 6.3878
5/27/2022 6:45:00 PM 7.2593 6.6722
5/27/2022 7:00:00 PM 7.2597 6.9781
5/27/2022 7:15:00 PM 7.2525 9.7773
5/27/2022 7:30:00 PM 7.2556 9.0637
5/27/2022 7:45:00 PM 7.2561 8.3394
5/27/2022 8:00:00 PM 7.2559 8.1009
5/27/2022 8:15:00 PM 7.2529 8.174
5/27/2022 8:30:00 PM 7.25 7.8648
5/27/2022 8:45:00 PM 7.2478 7.8
5/27/2022 9:00:00 PM 7.2436 7.9163
5/27/2022 9:15:00 PM 7.2358 8.5699
5/27/2022 9:30:00 PM 7.2265 8.4286
5/27/2022 9:45:00 PM 7.2157 7.8552
5/27/2022 10:00:00 PM 7.2062 7.6468
5/27/2022 10:15:00 PM 7.1964 7.8343
5/27/2022 10:30:00 PM 7.1854 7.8033
5/27/2022 10:45:00 PM 7.1721 7.6342
5/27/2022 11:00:00 PM 7.1575 7.6184
5/27/2022 11:15:00 PM 7.1441 7.861
5/27/2022 11:30:00 PM 7.1314 7.838
5/27/2022 11:45:00 PM 7.126 7.9
5/28/2022 12:00:00 AM 7.1051 8.083
5/28/2022 12:15:00 AM 7.0934 8.0515
5/28/2022 12:30:00 AM 7.0805 7.9875
5/28/2022 12:45:00 AM 7.0676 7.9536
5/28/2022 1:00:00 AM 7.0566 7.8217
5/28/2022 1:15:00 AM 7.044 7.8113
5/28/2022 1:30:00 AM 7.0339 7.9847
5/28/2022 1:45:00 AM 7.0243 7.8547
5/28/2022 2:00:00 AM 7.0104 7.7441
5/28/2022 2:15:00 AM 6.9974 7.6836
5/28/2022 2:30:00 AM 6.9861 7.6645
5/28/2022 2:45:00 AM 6.979 7.7
5/28/2022 3:00:00 AM 6.9641 7.5302
5/28/2022 3:15:00 AM 6.9529 8.7475
5/28/2022 3:30:00 AM 6.9439 7.5255
5/28/2022 3:45:00 AM 6.9345 7.4713
5/28/2022 4:00:00 AM 6.9255 7.3789
5/28/2022 4:15:00 AM 6.9161 7.3323
5/28/2022 4:30:00 AM 6.9056 7.4088
5/28/2022 4:45:00 AM 6.8967 7.3592
5/28/2022 5:00:00 AM 6.8876 7.4735
5/28/2022 5:15:00 AM 6.8778 7.4219
5/28/2022 5:30:00 AM 6.8693 7.2106
5/28/2022 5:45:00 AM 6.867 7.3
5/28/2022 6:00:00 AM 6.8529 7.1579
5/28/2022 6:15:00 AM 6.8454 7.0935
5/28/2022 6:30:00 AM 6.8385 7.0253
5/28/2022 6:45:00 AM 6.8303 7.2954
5/28/2022 7:00:00 AM 6.8268 6.4386
5/28/2022 7:15:00 AM 6.8254 6.3523
5/28/2022 7:30:00 AM 6.8211 6.3462
5/28/2022 7:45:00 AM 6.8212 6.2947
5/28/2022 8:00:00 AM 6.8198 6.1637
5/28/2022 8:15:00 AM 6.8167 6.1247
5/28/2022 8:30:00 AM 6.8161 6.2047
5/28/2022 8:45:00 AM 6.818 6.3
5/28/2022 9:00:00 AM 6.8184 6.1256
5/28/2022 9:15:00 AM 6.8215 6.5756
5/28/2022 9:30:00 AM 6.8248 6.4028
5/28/2022 9:45:00 AM 6.8247 6.1771
5/28/2022 10:00:00 AM 6.8253 6.2078
5/28/2022 10:15:00 AM 6.8271 6.2176
5/28/2022 10:30:00 AM 6.8354 6.0326
5/28/2022 10:45:00 AM 6.8412 6.4014
5/28/2022 11:00:00 AM 6.8508 6.3946
5/28/2022 11:15:00 AM 6.8554 6.3441
5/28/2022 11:30:00 AM 6.8598 6.4182
5/28/2022 11:45:00 AM 6.8586 6.4
5/28/2022 12:00:00 PM 6.8746 6.6433
5/28/2022 12:15:00 PM 6.8828 6.4615
5/28/2022 12:30:00 PM 6.8908 6.505
5/28/2022 12:45:00 PM 6.9004 6.6433
5/28/2022 1:00:00 PM 6.9127 6.5008
5/28/2022 1:15:00 PM 6.9264 6.9787
5/28/2022 1:30:00 PM 6.9394 7.1375
5/28/2022 1:45:00 PM 6.9547 6.6738
5/28/2022 2:00:00 PM 6.9704 6.6522
5/28/2022 2:15:00 PM 6.9849 6.6808
5/28/2022 2:30:00 PM 6.9964 6.8774
5/28/2022 2:45:00 PM 7.0126 6.9495
5/28/2022 3:00:00 PM 7.0283 6.8145
5/28/2022 3:15:00 PM 7.0418 6.7442
5/28/2022 3:30:00 PM 7.0545 6.683
5/28/2022 3:45:00 PM 7.0667 6.6998
5/28/2022 4:00:00 PM 7.0808 6.8574
5/28/2022 4:15:00 PM 7.09 6.9574
5/28/2022 4:30:00 PM 7.0994 7.1171
5/28/2022 4:45:00 PM 7.1091 7.0648
5/28/2022 5:00:00 PM 7.1199 7.1041
5/28/2022 5:15:00 PM 7.1293 6.9945
5/28/2022 5:30:00 PM 7.1411 6.965
5/28/2022 5:45:00 PM 7.1456 7
5/28/2022 6:00:00 PM 7.1614 7.0701
5/28/2022 6:15:00 PM 7.1664 7.0286
5/28/2022 6:30:00 PM 7.172 7.1666
5/28/2022 6:45:00 PM 7.1787 7.0436
5/28/2022 7:00:00 PM 7.1841 7.0319
5/28/2022 7:15:00 PM 7.1908 7.0065
5/28/2022 7:30:00 PM 7.1975 7.1208
5/28/2022 7:45:00 PM 7.1998 7.1366
5/28/2022 8:00:00 PM 7.1971 7.1627
5/28/2022 8:15:00 PM 7.1972 7.0444
5/28/2022 8:30:00 PM 7.1947 7.0883
5/28/2022 8:45:00 PM 7.1946 7.2
5/28/2022 9:00:00 PM 7.1816 7.255
5/28/2022 9:15:00 PM 7.1749 7.6303
5/28/2022 9:30:00 PM 7.1668 7.6494
5/28/2022 9:45:00 PM 7.1591 7.5031
5/28/2022 10:00:00 PM 7.1503 7.3826
5/28/2022 10:15:00 PM 7.1428 7.4825
5/28/2022 10:30:00 PM 7.1353 7.5227
5/28/2022 10:45:00 PM 7.1267 7.48
5/28/2022 11:00:00 PM 7.119 7.4423
5/28/2022 11:15:00 PM 7.1109 7.433
5/28/2022 11:30:00 PM 7.1025 7.5723
5/28/2022 11:45:00 PM 7.0966 7.6001
5/29/2022 12:00:00 AM 7.0842 7.5368
5/29/2022 12:15:00 AM 7.0745 7.6768
5/29/2022 12:30:00 AM 7.0643 8.0475
5/29/2022 12:45:00 AM 7.0514 8.0294
5/29/2022 1:00:00 AM 7.0385 7.9372
5/29/2022 1:15:00 AM 7.0284 7.8915
5/29/2022 1:30:00 AM 7.0176 7.7563
5/29/2022 1:45:00 AM 7.0069 7.7405
5/29/2022 2:00:00 AM 6.996 7.9077
5/29/2022 2:15:00 AM 6.9874 7.8551
5/29/2022 2:30:00 AM 6.9778 7.9394
5/29/2022 2:45:00 AM 6.972 8.1
5/29/2022 3:00:00 AM 6.9573 7.9163
5/29/2022 3:15:00 AM 6.9484 9.4128
5/29/2022 3:30:00 AM 6.939 8.0481
5/29/2022 3:45:00 AM 6.9295 7.9756
5/29/2022 4:00:00 AM 6.9192 8.0689
5/29/2022 4:15:00 AM 6.9111 7.9419
5/29/2022 4:30:00 AM 6.9011 8.0886
5/29/2022 4:45:00 AM 6.8922 7.8827
5/29/2022 5:00:00 AM 6.8831 7.9311
5/29/2022 5:15:00 AM 6.8748 8.0189
5/29/2022 5:30:00 AM 6.8685 8.1365
5/29/2022 5:45:00 AM 6.8628 7.7
5/29/2022 6:00:00 AM 6.8552 7.1859
5/29/2022 6:15:00 AM 6.8499 7.5289
5/29/2022 6:30:00 AM 6.8436 7.3794
5/29/2022 6:45:00 AM 6.8354 6.6527
5/29/2022 7:00:00 AM 6.829 6.4746
5/29/2022 7:15:00 AM 6.8254 6.5531
5/29/2022 7:30:00 AM 6.8211 6.6402
5/29/2022 7:45:00 AM 6.8166 6.7804
5/29/2022 8:00:00 AM 6.817 6.747
5/29/2022 8:15:00 AM 6.8158 6.8765
5/29/2022 8:30:00 AM 6.8161 6.8303
5/29/2022 8:45:00 AM 6.8152 6.7
5/29/2022 9:00:00 AM 6.8162 7.0388
5/29/2022 9:15:00 AM 6.8153 7.0066
5/29/2022 9:30:00 AM 6.8162 6.882
5/29/2022 9:45:00 AM 6.8167 6.7265
5/29/2022 10:00:00 AM 6.8214 6.749
5/29/2022 10:15:00 AM 6.8232 6.818
5/29/2022 10:30:00 AM 6.8257 6.8556
5/29/2022 10:45:00 AM 6.8288 6.7887
5/29/2022 11:00:00 AM 6.8311 6.6243
5/29/2022 11:15:00 AM 6.8345 6.492
5/29/2022 11:30:00 AM 6.8408 6.6077
5/29/2022 11:45:00 AM 6.846 6.6
5/29/2022 12:00:00 PM 6.8534 6.2647
5/29/2022 12:15:00 PM 6.8594 6.1261
5/29/2022 12:30:00 PM 6.8669 6.0787
5/29/2022 12:45:00 PM 6.8735 6.3689
5/29/2022 1:00:00 PM 6.8797 6.2833
5/29/2022 1:15:00 PM 6.8854 6.2225
5/29/2022 1:30:00 PM 6.9004 6.2401
5/29/2022 1:45:00 PM 6.9188 6.2315
5/29/2022 2:00:00 PM 6.9352 6.2428
5/29/2022 2:15:00 PM 6.9483 6.3324
5/29/2022 2:30:00 PM 6.9534 6.2608
5/29/2022 2:45:00 PM 6.9668 6.5236
5/29/2022 3:00:00 PM 6.9821 6.7753
5/29/2022 3:15:00 PM 6.9991 7.161
5/29/2022 3:30:00 PM 7.0161 6.9877
5/29/2022 3:45:00 PM 7.0331 6.6887
5/29/2022 4:00:00 PM 7.0489 6.6392
5/29/2022 4:15:00 PM 7.0693 6.6367
5/29/2022 4:30:00 PM 7.0898 6.7084
5/29/2022 4:45:00 PM 7.1054 6.7371
5/29/2022 5:00:00 PM 7.1179 6.4176
5/29/2022 5:15:00 PM 7.132 6.534
5/29/2022 5:30:00 PM 7.1474 6.5046
5/29/2022 5:45:00 PM 7.1526 6.6
5/29/2022 6:00:00 PM 7.1714 6.5685
5/29/2022 6:15:00 PM 7.1834 6.6101
5/29/2022 6:30:00 PM 7.1923 6.7164
5/29/2022 6:45:00 PM 7.2003 6.7539
5/29/2022 7:00:00 PM 7.2044 6.6966
5/29/2022 7:15:00 PM 7.2098 6.7225
5/29/2022 7:30:00 PM 7.2138 6.6535
5/29/2022 7:45:00 PM 7.2166 6.8648
5/29/2022 8:00:00 PM 7.2168 11.4941
5/29/2022 8:15:00 PM 7.2165 7.9236
5/29/2022 8:30:00 PM 7.2168 6.9696
5/29/2022 8:45:00 PM 7.217 6.9
5/29/2022 9:00:00 PM 7.2097 7.0905
5/29/2022 9:15:00 PM 7.2049 7.3325
5/29/2022 9:30:00 PM 7.1977 7.3902
5/29/2022 9:45:00 PM 7.1898 8.0029
5/29/2022 10:00:00 PM 7.1803 9.0194
5/29/2022 10:15:00 PM 7.1712 8.603
5/29/2022 10:30:00 PM 7.1643 8.6086
5/29/2022 10:45:00 PM 7.1558 8.9537
5/29/2022 11:00:00 PM 7.1532 8.8171
5/29/2022 11:15:00 PM 7.15 8.7772
5/29/2022 11:30:00 PM 7.1399 8.716
5/29/2022 11:45:00 PM 7.133 8.7
5/30/2022 12:00:00 AM 7.1135 8.7063
5/30/2022 12:15:00 AM 7.1033 8.6766
5/30/2022 12:30:00 AM 7.0947 8.8264
5/30/2022 12:45:00 AM 7.0856 8.6728
5/30/2022 1:00:00 AM 7.0756 8.6864
5/30/2022 1:15:00 AM 7.0653 8.7236
5/30/2022 1:30:00 AM 7.0542 8.7475
5/30/2022 1:45:00 AM 7.044 8.7129
5/30/2022 2:00:00 AM 7.0338 8.7731
5/30/2022 2:15:00 AM 7.0222 8.7833
5/30/2022 2:30:00 AM 7.0091 8.8651
5/30/2022 2:45:00 AM 7.0014 9
5/30/2022 3:00:00 AM 6.9817 8.9751
5/30/2022 3:15:00 AM 6.969 11.0696
5/30/2022 3:30:00 AM 6.9572 8.9357
5/30/2022 3:45:00 AM 6.9463 8.881
5/30/2022 4:00:00 AM 6.937 8.7253
5/30/2022 4:15:00 AM 6.9279 8.7066
5/30/2022 4:30:00 AM 6.9184 8.649
5/30/2022 4:45:00 AM 6.9077 8.8276
5/30/2022 5:00:00 AM 6.8998 8.9411
5/30/2022 5:15:00 AM 6.8914 9.2673
5/30/2022 5:30:00 AM 6.8828 9.4998
5/30/2022 5:45:00 AM 6.881 9.2
5/30/2022 6:00:00 AM 6.8688 8.1949
5/30/2022 6:15:00 AM 6.8623 8.499
5/30/2022 6:30:00 AM 6.8564 8.2762
5/30/2022 6:45:00 AM 6.8525 7.6698
5/30/2022 7:00:00 AM 6.847 7.4707
5/30/2022 7:15:00 AM 6.8438 7.5317
5/30/2022 7:30:00 AM 6.8402 7.4116
5/30/2022 7:45:00 AM 6.8403 7.1486
5/30/2022 8:00:00 AM 6.8384 7.0896
5/30/2022 8:15:00 AM 6.8362 7.1288
5/30/2022 8:30:00 AM 6.8357 7.1167
5/30/2022 8:45:00 AM 6.8362 7.2
5/30/2022 9:00:00 AM 6.8406 7.1639
5/30/2022 9:15:00 AM 6.8413 7.0681
5/30/2022 9:30:00 AM 6.8433 7.0419
5/30/2022 9:45:00 AM 6.8455 6.9583
5/30/2022 10:00:00 AM 6.845 7.6273
5/30/2022 10:15:00 AM 6.8449 8.0769
5/30/2022 10:30:00 AM 6.8458 8.2432
5/30/2022 10:45:00 AM 6.8494 7.3698
5/30/2022 11:00:00 AM 6.8572 7.0496
5/30/2022 11:15:00 AM 6.8628 6.8904
5/30/2022 11:30:00 AM 6.8651 6.8806
5/30/2022 11:45:00 AM 6.8642 6.9
5/30/2022 12:00:00 PM 6.8737 6.9021
5/30/2022 12:15:00 PM 6.8821 7.1578
5/30/2022 12:30:00 PM 6.8907 7.2174
5/30/2022 12:45:00 PM 6.8999 6.937
5/30/2022 1:00:00 PM 6.9109 6.7582
5/30/2022 1:15:00 PM 6.9228 7.0301
5/30/2022 1:30:00 PM 6.9369 7.232
5/30/2022 1:45:00 PM 6.948 7.2376
5/30/2022 2:00:00 PM 6.9639 7.269
5/30/2022 2:15:00 PM 6.982 6.9605
5/30/2022 2:30:00 PM 6.9983 6.9552
5/30/2022 2:45:00 PM 7.0102 7.1681
5/30/2022 3:00:00 PM 7.0224 7.3277
5/30/2022 3:15:00 PM 7.0366 7.4076
5/30/2022 3:30:00 PM 7.0533 7.4043
5/30/2022 3:45:00 PM 7.0702 7.425
5/30/2022 4:00:00 PM 7.0869 7.5805
5/30/2022 4:15:00 PM 7.1043 7.4759
5/30/2022 4:30:00 PM 7.124 7.4974
5/30/2022 4:45:00 PM 7.1434 7.469
5/30/2022 5:00:00 PM 7.1616 7.5792
5/30/2022 5:15:00 PM 7.1752 8.0478
5/30/2022 5:30:00 PM 7.1889 8.3382
5/30/2022 5:45:00 PM 7.1918 8.5
5/30/2022 6:00:00 PM 7.2182 8.3636
5/30/2022 6:15:00 PM 7.2297 8.33
5/30/2022 6:30:00 PM 7.2402 8.1982
5/30/2022 6:45:00 PM 7.2477 8.5155
5/30/2022 7:00:00 PM 7.2595 9.0851
5/30/2022 7:15:00 PM 7.271 8.8452
5/30/2022 7:30:00 PM 7.2787 8.7193
5/30/2022 7:45:00 PM 7.2848 8.7106
5/30/2022 8:00:00 PM 7.2812 8.7837
5/30/2022 8:15:00 PM 7.2791 8.9489
5/30/2022 8:30:00 PM 7.2776 9.1118
5/30/2022 8:45:00 PM 7.2758 9
5/30/2022 9:00:00 PM 7.2674 9.1829
5/30/2022 9:15:00 PM 7.2596 9.3565
5/30/2022 9:30:00 PM 7.2506 9.268
5/30/2022 9:45:00 PM 7.2405 9.3449
5/30/2022 10:00:00 PM 7.2358 9.523
5/30/2022 10:15:00 PM 7.2291 9.609
5/30/2022 10:30:00 PM 7.221 9.7199
5/30/2022 10:45:00 PM 7.2131 9.7171
5/30/2022 11:00:00 PM 7.2054 9.9584
5/30/2022 11:15:00 PM 7.1959 9.9032
5/30/2022 11:30:00 PM 7.1834 9.7057
5/30/2022 11:45:00 PM 7.1792 9.7
5/31/2022 12:00:00 AM 7.1662 9.2705
5/31/2022 12:15:00 AM 7.1431 9.4706
5/31/2022 12:30:00 AM 7.1175 9.5506
5/31/2022 12:45:00 AM 7.0965 9.5641
5/31/2022 1:00:00 AM 7.0821 9.479
5/31/2022 1:15:00 AM 7.0712 9.5459
5/31/2022 1:30:00 AM 7.057 9.3633
5/31/2022 1:45:00 AM 7.0428 9.4964
5/31/2022 2:00:00 AM 7.0294 9.5418
5/31/2022 2:15:00 AM 7.0155 9.8868
5/31/2022 2:30:00 AM 7.0036 10.0482
5/31/2022 2:45:00 AM 6.993 10
5/31/2022 3:00:00 AM 6.9736 10.076
5/31/2022 3:15:00 AM 6.9582 9.9722
5/31/2022 3:30:00 AM 6.9418 10.2581
5/31/2022 3:45:00 AM 6.9262 10.3851
5/31/2022 4:00:00 AM 6.9133 10.6818
5/31/2022 4:15:00 AM 6.9034 10.5531
5/31/2022 4:30:00 AM 6.892 10.6444
5/31/2022 4:45:00 AM 6.8791 10.7959
5/31/2022 5:00:00 AM 6.8712 12.0049
5/31/2022 5:15:00 AM 6.8629 10.6799
5/31/2022 5:30:00 AM 6.858 10.2657
5/31/2022 5:45:00 AM 6.8558 10.5
5/31/2022 6:00:00 AM 6.8399 9.9693
5/31/2022 6:15:00 AM 6.8324 9.9515
5/31/2022 6:30:00 AM 6.8279 10.289
5/31/2022 6:45:00 AM 6.8242 10.1746
5/31/2022 7:00:00 AM 6.8205 10.2075
5/31/2022 7:15:00 AM 6.8207 10.0431
5/31/2022 7:30:00 AM 6.8207 10.2629
5/31/2022 7:45:00 AM 6.8199 9.4465
5/31/2022 8:00:00 AM 6.8164 8.7568
5/31/2022 8:15:00 AM 6.8159 8.8972
5/31/2022 8:30:00 AM 6.8159 9.0682
5/31/2022 8:45:00 AM 6.8124 9
5/31/2022 9:00:00 AM 6.8194 9.1309
5/31/2022 9:15:00 AM 6.8242 9.2734
5/31/2022 9:30:00 AM 6.8307 9.6752
5/31/2022 9:45:00 AM 6.8371 9.4539
5/31/2022 10:00:00 AM 6.8441 8.8943
5/31/2022 10:15:00 AM 6.8515 9.0969
5/31/2022 10:30:00 AM 6.8578 9.134
5/31/2022 10:45:00 AM 6.8667 9.2292
5/31/2022 11:00:00 AM 6.8768 9.3164
5/31/2022 11:15:00 AM 6.8891 9.42
5/31/2022 11:30:00 AM 6.9034 9.4875
5/31/2022 11:45:00 AM 6.9048 9.4
5/31/2022 12:00:00 PM 6.9261 9.625
5/31/2022 12:15:00 PM 6.9348 9.6761
5/31/2022 12:30:00 PM 6.9465 9.5865
5/31/2022 12:45:00 PM 6.9612 9.5868
5/31/2022 1:00:00 PM 6.9754 9.612
5/31/2022 1:15:00 PM 6.9873 9.714
5/31/2022 1:30:00 PM 7.0007 9.621
5/31/2022 1:45:00 PM 7.0151 11.25
5/31/2022 2:00:00 PM 7.0278 10.4051
5/31/2022 2:15:00 PM 7.0415 13.3635
5/31/2022 2:30:00 PM 7.0512 13.262
5/31/2022 2:45:00 PM 7.0619 10.9835
5/31/2022 3:00:00 PM 7.0749 10.141
5/31/2022 3:15:00 PM 7.09 9.9194
5/31/2022 3:30:00 PM 7.1084 9.9712
5/31/2022 3:45:00 PM 7.1261 9.8864
5/31/2022 4:00:00 PM 7.1467 10.0247
5/31/2022 4:15:00 PM 7.167 9.7971
5/31/2022 4:30:00 PM 7.1854 9.9275
5/31/2022 4:45:00 PM 7.1978 9.6984
5/31/2022 5:00:00 PM 7.2105 9.9388
5/31/2022 5:15:00 PM 7.221 9.8089
5/31/2022 5:30:00 PM 7.2342 9.9132
5/31/2022 5:45:00 PM 7.2422 9.9
5/31/2022 6:00:00 PM 7.2628 11.2168
5/31/2022 6:15:00 PM 7.2792 10.9423
5/31/2022 6:30:00 PM 7.291 10.9134
5/31/2022 6:45:00 PM 7.3001 10.3936
5/31/2022 7:00:00 PM 7.3059 10.2431
5/31/2022 7:15:00 PM 7.3112 10.5741
5/31/2022 7:30:00 PM 7.3151 10.8441
5/31/2022 7:45:00 PM 7.3175 10.8244
5/31/2022 8:00:00 PM 7.3163 10.7481
5/31/2022 8:15:00 PM 7.313 10.3662
5/31/2022 8:30:00 PM 7.3101 10.7114
5/31/2022 8:45:00 PM 7.308 10.8
5/31/2022 9:00:00 PM 7.2969 11.1912
5/31/2022 9:15:00 PM 7.2865 11.0474
5/31/2022 9:30:00 PM 7.2503 14.0419
5/31/2022 9:45:00 PM 7.2453 12.7038
5/31/2022 10:00:00 PM 7.2449 12.3779
5/31/2022 10:15:00 PM 7.2395 12.2418
5/31/2022 10:30:00 PM 7.2322 11.9555
5/31/2022 10:45:00 PM 7.2247 11.8909
5/31/2022 11:00:00 PM 7.2139 11.8737
5/31/2022 11:15:00 PM 7.2074 11.691
5/31/2022 11:30:00 PM 7.2017 11.3928
5/31/2022 11:45:00 PM 7.1988 11.4
6/1/2022 12:00:00 AM 7.1763 11.4324
6/1/2022 12:15:00 AM 7.1582 11.5038
6/1/2022 12:30:00 AM 7.1413 14.8398
6/1/2022 12:45:00 AM 7.1249 16.3178
6/1/2022 1:00:00 AM 7.1059 16.8554
6/1/2022 1:15:00 AM 7.0902 17.2533
6/1/2022 1:30:00 AM 7.0719 17.2408
6/1/2022 1:45:00 AM 7.0509 16.4095
6/1/2022 2:00:00 AM 7.0332 15.7217
6/1/2022 2:15:00 AM 7.0194 16.3325
6/1/2022 2:30:00 AM 7.0073 16.3113
6/1/2022 2:45:00 AM 6.9972 16.1
6/1/2022 3:00:00 AM 6.9769 17.536
6/1/2022 3:15:00 AM 6.956 19.1263
6/1/2022 3:30:00 AM 6.9356 17.3175
6/1/2022 3:45:00 AM 6.919 17.7635
6/1/2022 4:00:00 AM 6.9029 17.5832
6/1/2022 4:15:00 AM 6.8859 18.5525
6/1/2022 4:30:00 AM 6.869 18.8891
6/1/2022 4:45:00 AM 6.8546 20.1334
6/1/2022 5:00:00 AM 6.8408 20.7401
6/1/2022 5:15:00 AM 6.8264 20.4802
6/1/2022 5:30:00 AM 6.8192 33.5562
6/1/2022 5:45:00 AM 6.818 21
6/1/2022 6:00:00 AM 6.8035 24.7071
6/1/2022 6:15:00 AM 6.7944 24.1051
6/1/2022 6:30:00 AM 6.7849 22.0791
6/1/2022 6:45:00 AM 6.7785 14.5874
6/1/2022 7:00:00 AM 6.7769 13.0891
6/1/2022 7:15:00 AM 6.7757 12.5598
6/1/2022 7:30:00 AM 6.7726 12.3192
6/1/2022 7:45:00 AM 6.7719 12.176
6/1/2022 8:00:00 AM 6.7707 12.0662
6/1/2022 8:15:00 AM 6.7658 14.2799
6/1/2022 8:30:00 AM 6.7665 13.3366
6/1/2022 8:45:00 AM 6.769 13
6/1/2022 9:00:00 AM 6.7679 13.5694
6/1/2022 9:15:00 AM 6.7682 105.2185
6/1/2022 9:30:00 AM 6.7433 63.7486
6/1/2022 9:45:00 AM 6.7537 16.1585
6/1/2022 10:00:00 AM 6.7623 14.3961
6/1/2022 10:15:00 AM 6.769 14.4251
6/1/2022 10:30:00 AM 6.7741 13.7409
6/1/2022 10:45:00 AM 6.7812 14.14
6/1/2022 11:00:00 AM 6.7873 13.8497
6/1/2022 11:15:00 AM 6.793 13.8858
6/1/2022 11:30:00 AM 6.8001 13.9443
6/1/2022 11:45:00 AM 6.804 14
6/1/2022 12:00:00 PM 6.8241 13.9154
6/1/2022 12:15:00 PM 6.8367 13.7536
6/1/2022 12:30:00 PM 6.8512 13.6746
6/1/2022 12:45:00 PM 6.8716 14.0573
6/1/2022 1:00:00 PM 6.8864 13.6734
6/1/2022 1:15:00 PM 6.8947 13.6476
6/1/2022 1:30:00 PM 6.9025 13.8128
6/1/2022 1:45:00 PM 6.912 13.6846
6/1/2022 2:00:00 PM 6.924 13.7241
6/1/2022 2:15:00 PM 6.9417 14.1778
6/1/2022 2:30:00 PM 6.9584 14.2781
6/1/2022 2:45:00 PM 6.9736 14.4882
6/1/2022 3:00:00 PM 6.9872 14.1577
6/1/2022 3:15:00 PM 7.0034 14.4673
6/1/2022 3:30:00 PM 7.0216 14.2928
6/1/2022 3:45:00 PM 7.0364 14.0445
6/1/2022 4:00:00 PM 7.0432 17.0651
6/1/2022 4:15:00 PM 7.0472 25.9706
6/1/2022 4:30:00 PM 7.0443 21.5474
6/1/2022 4:45:00 PM 7.0442 14.3882
6/1/2022 5:00:00 PM 7.0451 13.3072
6/1/2022 5:15:00 PM 7.0529 14.9459
6/1/2022 5:30:00 PM 7.0808 15.3194
6/1/2022 5:45:00 PM 7.091 15.5
6/1/2022 6:00:00 PM 7.1052 16.0231
6/1/2022 6:15:00 PM 7.1018 16.7658
6/1/2022 6:30:00 PM 7.0902 18.4556
6/1/2022 6:45:00 PM 7.0784 38.8013
6/1/2022 7:00:00 PM 7.0638 58.1714
6/1/2022 7:15:00 PM 7.0454 71.9144
6/1/2022 7:30:00 PM 7.0355 79.9505
6/1/2022 7:45:00 PM 7.0169 98.3466
6/1/2022 8:00:00 PM 6.9978 60.1378
6/1/2022 8:15:00 PM 6.9903 55.126
6/1/2022 8:30:00 PM 6.9936 49.5786
6/1/2022 8:45:00 PM 6.9958 46.8
6/1/2022 9:00:00 PM 6.9786 70.4869
6/1/2022 9:15:00 PM 6.9593 209.1421
6/1/2022 9:30:00 PM 6.9313 512.4508
6/1/2022 9:45:00 PM 6.8894 523.3155
6/1/2022 10:00:00 PM 6.8542 469.313
6/1/2022 10:15:00 PM 6.8329 456.0024
6/1/2022 10:30:00 PM 6.8139 407.2691
6/1/2022 10:45:00 PM 6.7949 349.2206
6/1/2022 11:00:00 PM 6.7799 280.3299
6/1/2022 11:15:00 PM 6.7683 242.8267
6/1/2022 11:30:00 PM 6.7562 201.3734
6/1/2022 11:45:00 PM 6.7494 168.3001
6/2/2022 12:00:00 AM 6.7407 138.6029
6/2/2022 12:15:00 AM 6.7329 121.3621
6/2/2022 12:30:00 AM 6.726 121.8527
6/2/2022 12:45:00 AM 6.7169 113.0813
6/2/2022 1:00:00 AM 6.7078 99.0709
6/2/2022 1:15:00 AM 6.7003 83.1497
6/2/2022 1:30:00 AM 6.6937 69.128
6/2/2022 1:45:00 AM 6.6862 59.8288
6/2/2022 2:00:00 AM 6.677 55.439
6/2/2022 2:15:00 AM 6.6694 51.0961
6/2/2022 2:30:00 AM 6.6594 52.0729
6/2/2022 2:45:00 AM 6.65 53.7
6/2/2022 3:00:00 AM 6.6417 51.9113
6/2/2022 3:15:00 AM 6.6318 50.1253
6/2/2022 3:30:00 AM 6.6254 48.4208
6/2/2022 3:45:00 AM 6.6172 48.1079
6/2/2022 4:00:00 AM 6.6098 52.3755
6/2/2022 4:15:00 AM 6.6042 53.4324
6/2/2022 4:30:00 AM 6.5959 53.448
6/2/2022 4:45:00 AM 6.589 55.5274
6/2/2022 5:00:00 AM 6.581 57.8287
6/2/2022 5:15:00 AM 6.5705 62.5849
6/2/2022 5:30:00 AM 6.5602 71.5013
6/2/2022 5:45:00 AM 6.5576 84
6/2/2022 6:00:00 AM 6.5348 80.1733
6/2/2022 6:15:00 AM 6.5252 116.3704
6/2/2022 6:30:00 AM 6.5181 97.1943
6/2/2022 6:45:00 AM 6.5117 126.2872
6/2/2022 7:00:00 AM 6.5074 141.8308
6/2/2022 7:15:00 AM 6.4939 158.2354
6/2/2022 7:30:00 AM 6.4802 166.8684
6/2/2022 7:45:00 AM 6.4668 188.6368
6/2/2022 8:00:00 AM 6.453 197.0269
6/2/2022 8:15:00 AM 6.4416 193.3431
6/2/2022 8:30:00 AM 6.4304 191.4136
6/2/2022 8:45:00 AM 6.4218 193.2001
6/2/2022 9:00:00 AM 6.4109 186.7575
6/2/2022 9:15:00 AM 6.4026 173.7179
6/2/2022 9:30:00 AM 6.3947 167.3866
6/2/2022 9:45:00 AM 6.3903 165.1734
6/2/2022 10:00:00 AM 6.3831 152.9206
6/2/2022 10:15:00 AM 6.3807 137.8145
6/2/2022 10:30:00 AM 6.3798 132.7563
6/2/2022 10:45:00 AM 6.378 133.3843
6/2/2022 11:00:00 AM 6.3757 121.3931
6/2/2022 11:15:00 AM 6.3746 114.2566
6/2/2022 11:30:00 AM 6.3754 106.5493
6/2/2022 11:45:00 AM 6.377 96.3001
6/2/2022 12:00:00 PM 6.3841 81.0721
6/2/2022 12:15:00 PM 6.3915 84.4629
6/2/2022 12:30:00 PM 6.3929 80.1222
6/2/2022 12:45:00 PM 6.3957 71.5028
6/2/2022 1:00:00 PM 6.397 66.4472
6/2/2022 1:15:00 PM 6.4019 62.4729
6/2/2022 1:30:00 PM 6.4075 57.8103
6/2/2022 1:45:00 PM 6.4116 52.4262
6/2/2022 2:00:00 PM 6.4177 48.878
6/2/2022 2:15:00 PM 6.4234 48.7942
6/2/2022 2:30:00 PM 6.4298 48.767
6/2/2022 2:45:00 PM 6.4352 47.0417
6/2/2022 3:00:00 PM 6.4433 46.1918
6/2/2022 3:15:00 PM 6.4522 45.5068
6/2/2022 3:30:00 PM 6.4605 43.448
6/2/2022 3:45:00 PM 6.466 45.2891
6/2/2022 4:00:00 PM 6.4691 37.4432
6/2/2022 4:15:00 PM 6.4765 19.5199
6/2/2022 4:30:00 PM 6.4875 17.8055
6/2/2022 4:45:00 PM 6.5028 18.0262
6/2/2022 5:00:00 PM 6.5157 17.2083
6/2/2022 5:15:00 PM 6.5268 17.3098
6/2/2022 5:30:00 PM 6.5376 16.9156
6/2/2022 5:45:00 PM 6.5408 16.8
6/2/2022 6:00:00 PM 6.5554 16.1637
6/2/2022 6:15:00 PM 6.5659 15.9906
6/2/2022 6:30:00 PM 6.575 15.7365
6/2/2022 6:45:00 PM 6.584 15.5316
6/2/2022 7:00:00 PM 6.5983 14.3547
6/2/2022 7:15:00 PM 6.6118 14.1691
6/2/2022 7:30:00 PM 6.6222 13.7396
6/2/2022 7:45:00 PM 6.6309 13.8948
6/2/2022 8:00:00 PM 6.6378 13.5184
6/2/2022 8:15:00 PM 6.644 13.5258
6/2/2022 8:30:00 PM 6.647 13.2811
6/2/2022 8:45:00 PM 6.6472 13.4
6/2/2022 9:00:00 PM 6.6472 12.8992
6/2/2022 9:15:00 PM 6.6476 13.1342
6/2/2022 9:30:00 PM 6.6444 12.796
6/2/2022 9:45:00 PM 6.6416 12.8256
6/2/2022 10:00:00 PM 6.6379 12.4349
6/2/2022 10:15:00 PM 6.6381 12.7205
6/2/2022 10:30:00 PM 6.6363 13.3569
6/2/2022 10:45:00 PM 6.6184 13.206
6/2/2022 11:00:00 PM 6.6209 12.7454
6/2/2022 11:15:00 PM 6.6228 12.3677
6/2/2022 11:30:00 PM 6.6241 11.6833
6/2/2022 11:45:00 PM 6.622 11.6
6/3/2022 12:00:00 AM 6.6164 11.5176
6/3/2022 12:15:00 AM 6.6089 12.2956
6/3/2022 12:30:00 AM 6.6038 11.6805
6/3/2022 12:45:00 AM 6.5988 11.6449
6/3/2022 1:00:00 AM 6.5979 11.4364
6/3/2022 1:15:00 AM 6.5927 11.2458
6/3/2022 1:30:00 AM 6.589 10.8668
6/3/2022 1:45:00 AM 6.5849 11.2337
6/3/2022 2:00:00 AM 6.5799 10.7809
6/3/2022 2:15:00 AM 6.5749 10.8169
6/3/2022 2:30:00 AM 6.5692 10.5087
6/3/2022 2:45:00 AM 6.5674 10.6
6/3/2022 3:00:00 AM 6.5589 10.0808
6/3/2022 3:15:00 AM 6.5554 10.2179
6/3/2022 3:30:00 AM 6.5501 10.141
6/3/2022 3:45:00 AM 6.5451 9.8632
6/3/2022 4:00:00 AM 6.54 9.5753
6/3/2022 4:15:00 AM 6.5362 9.7432
6/3/2022 4:30:00 AM 6.529 9.7761
6/3/2022 4:45:00 AM 6.5238 9.9546
6/3/2022 5:00:00 AM 6.5201 9.764
6/3/2022 5:15:00 AM 6.5143 9.7427
6/3/2022 5:30:00 AM 6.5084 9.422
6/3/2022 5:45:00 AM 6.5086 9.4
6/3/2022 6:00:00 AM 6.5021 9.3166
6/3/2022 6:15:00 AM 6.4974 9.3967
6/3/2022 6:30:00 AM 6.49 9.0942
6/3/2022 6:45:00 AM 6.4871 8.9914
6/3/2022 7:00:00 AM 6.485 9.027
6/3/2022 7:15:00 AM 6.4831 8.3355
6/3/2022 7:30:00 AM 6.4829 8.0277
6/3/2022 7:45:00 AM 6.481 8.2509
6/3/2022 8:00:00 AM 6.4825 8.0136
6/3/2022 8:15:00 AM 6.4829 8.8895
6/3/2022 8:30:00 AM 6.4832 8.8436
6/3/2022 8:45:00 AM 6.4806 8.7001
6/3/2022 9:00:00 AM 6.4839 8.5209
6/3/2022 9:15:00 AM 6.4853 8.5451
6/3/2022 9:30:00 AM 6.4873 8.0017
6/3/2022 9:45:00 AM 6.4929 8.4544
6/3/2022 10:00:00 AM 6.4958 8.3144
6/3/2022 10:15:00 AM 6.4995 8.1045
6/3/2022 10:30:00 AM 6.5042 7.7771
6/3/2022 10:45:00 AM 6.5087 7.8757
6/3/2022 11:00:00 AM 6.5136 7.6299
6/3/2022 11:15:00 AM 6.522 7.3675
6/3/2022 11:30:00 AM 6.5324 7.1666
6/3/2022 11:45:00 AM 6.5408 7.2
6/3/2022 12:00:00 PM 6.5522 7.0914
6/3/2022 12:15:00 PM 6.5594 6.7699
6/3/2022 12:30:00 PM 6.5683 6.4937
6/3/2022 12:45:00 PM 6.5786 6.6166
6/3/2022 1:00:00 PM 6.5893 6.4315
6/3/2022 1:15:00 PM 6.6013 6.2999
6/3/2022 1:30:00 PM 6.6163 6.0185
6/3/2022 1:45:00 PM 6.6312 6.0429
6/3/2022 2:00:00 PM 6.6461 5.7872
6/3/2022 2:15:00 PM 6.6586 5.4289
6/3/2022 2:30:00 PM 6.6721 5.0867
6/3/2022 2:45:00 PM 6.6844 5.3945
6/3/2022 3:00:00 PM 6.697 5.1804
6/3/2022 3:15:00 PM 6.709 5.1897
6/3/2022 3:30:00 PM 6.7244 4.9433
6/3/2022 3:45:00 PM 6.7352 4.8497
6/3/2022 4:00:00 PM 6.7527 4.6092
6/3/2022 4:15:00 PM 6.771 4.5173
6/3/2022 4:30:00 PM 6.7855 4.3604
6/3/2022 4:45:00 PM 6.7975 4.3984
6/3/2022 5:00:00 PM 6.8077 4.2849
6/3/2022 5:15:00 PM 6.8191 4.5496
6/3/2022 5:30:00 PM 6.8308 4.4473
6/3/2022 5:45:00 PM 6.8362 4.4
6/3/2022 6:00:00 PM 6.8509 4.2332
6/3/2022 6:15:00 PM 6.8637 4.0793
6/3/2022 6:30:00 PM 6.8702 3.9221
6/3/2022 6:45:00 PM 6.8758 4.153
6/3/2022 7:00:00 PM 6.8823 4.0709
6/3/2022 7:15:00 PM 6.8877 3.8151
6/3/2022 7:30:00 PM 6.8887 3.7385
6/3/2022 7:45:00 PM 6.8873 3.7792
6/3/2022 8:00:00 PM 6.8843 3.6868
6/3/2022 8:15:00 PM 6.8797 3.3281
6/3/2022 8:30:00 PM 6.8763 3.2144
6/3/2022 8:45:00 PM 6.8768 3.2
6/3/2022 9:00:00 PM 6.8698 3.3435
6/3/2022 9:15:00 PM 6.8589 3.2944
6/3/2022 9:30:00 PM 6.8516 3.1808
6/3/2022 9:45:00 PM 6.8469 3.023
6/3/2022 10:00:00 PM 6.8311 2.9158
6/3/2022 10:15:00 PM 6.8125 2.9382
6/3/2022 10:30:00 PM 6.7974 2.8562
6/3/2022 10:45:00 PM 6.7896 2.9097
6/3/2022 11:00:00 PM 6.7918 2.7404
6/3/2022 11:15:00 PM 6.7848 4.0508
6/3/2022 11:30:00 PM 6.7721 4.1491
6/3/2022 11:45:00 PM 6.7662 4.1
6/4/2022 12:00:00 AM 6.7516 4.0944
6/4/2022 12:15:00 AM 6.7428 4.1619
6/4/2022 12:30:00 AM 6.7325 4.0547
6/4/2022 12:45:00 AM 6.7182 4.0719
6/4/2022 1:00:00 AM 6.7033 3.9675
6/4/2022 1:15:00 AM 6.6865 4.1242
6/4/2022 1:30:00 AM 6.6709 4.0037
6/4/2022 1:45:00 AM 6.6547 4.0139
6/4/2022 2:00:00 AM 6.6388 3.8841
6/4/2022 2:15:00 AM 6.6263 3.9662
6/4/2022 2:30:00 AM 6.6136 3.8493
6/4/2022 2:45:00 AM 6.6066 3.8999
6/4/2022 3:00:00 AM 6.5919 3.6828
6/4/2022 3:15:00 AM 6.5751 4.2034
6/4/2022 3:30:00 AM 6.5581 4.1344
6/4/2022 3:45:00 AM 6.5469 4.109
6/4/2022 4:00:00 AM 6.5357 4.0381
6/4/2022 4:15:00 AM 6.5233 4.016
6/4/2022 4:30:00 AM 6.5095 3.7896
6/4/2022 4:45:00 AM 6.4959 3.8504
6/4/2022 5:00:00 AM 6.483 3.7435
6/4/2022 5:15:00 AM 6.4733 3.7992
6/4/2022 5:30:00 AM 6.466 3.7351
6/4/2022 5:45:00 AM 6.4596 3.8
6/4/2022 6:00:00 AM 6.4543 3.9303
6/4/2022 6:15:00 AM 6.4491 3.4258
6/4/2022 6:30:00 AM 6.4453 3.3506
6/4/2022 6:45:00 AM 6.4432 3.3722
6/4/2022 7:00:00 AM 6.4404 3.3511
6/4/2022 7:15:00 AM 6.439 3.3982
6/4/2022 7:30:00 AM 6.4353 3.4156
6/4/2022 7:45:00 AM 6.4334 3.3499
6/4/2022 8:00:00 AM 6.4346 3.3087
6/4/2022 8:15:00 AM 6.4414 3.3366
6/4/2022 8:30:00 AM 6.4495 3.3071
6/4/2022 8:45:00 AM 6.454 3.2
6/4/2022 9:00:00 AM 6.4629 3.2487
6/4/2022 9:15:00 AM 6.469 3.2236
6/4/2022 9:30:00 AM 6.4773 3.2065
6/4/2022 9:45:00 AM 6.4864 3.1393
6/4/2022 10:00:00 AM 6.4938 3.038
6/4/2022 10:15:00 AM 6.4991 3.1647
6/4/2022 10:30:00 AM 6.5082 3.129
6/4/2022 10:45:00 AM 6.5182 3.0487
6/4/2022 11:00:00 AM 6.5302 2.992
6/4/2022 11:15:00 AM 6.5451 2.9976
6/4/2022 11:30:00 AM 6.5573 2.9408
6/4/2022 11:45:00 AM 6.566 3
6/4/2022 12:00:00 PM 6.5837 2.9278
6/4/2022 12:15:00 PM 6.5956 2.9486
6/4/2022 12:30:00 PM 6.6059 2.9356
6/4/2022 12:45:00 PM 6.62 2.9898
6/4/2022 1:00:00 PM 6.6364 2.939
6/4/2022 1:15:00 PM 6.6503 2.9354
6/4/2022 1:30:00 PM 6.6689 2.8684
6/4/2022 1:45:00 PM 6.6878 2.8656
6/4/2022 2:00:00 PM 6.7071 2.8435
6/4/2022 2:15:00 PM 6.7276 2.802
6/4/2022 2:30:00 PM 6.7455 2.7359
6/4/2022 2:45:00 PM 6.7676 2.7413
6/4/2022 3:00:00 PM 6.791 2.6817
6/4/2022 3:15:00 PM 6.8138 2.6547
6/4/2022 3:30:00 PM 6.8342 2.6324
6/4/2022 3:45:00 PM 6.8595 2.5991
6/4/2022 4:00:00 PM 6.8819 2.5431
6/4/2022 4:15:00 PM 6.9078 2.5623
6/4/2022 4:30:00 PM 6.9328 2.499
6/4/2022 4:45:00 PM 6.9515 2.592
6/4/2022 5:00:00 PM 6.9643 2.5458
6/4/2022 5:15:00 PM 6.9812 2.5506
6/4/2022 5:30:00 PM 6.9997 2.5133
6/4/2022 5:45:00 PM 7.0112 2.5
6/4/2022 6:00:00 PM 7.0296 2.4174
6/4/2022 6:15:00 PM 7.0418 2.5268
6/4/2022 6:30:00 PM 7.0509 2.5591
6/4/2022 6:45:00 PM 7.0566 2.4533
6/4/2022 7:00:00 PM 7.0634 2.4287
6/4/2022 7:15:00 PM 7.0662 2.3968
6/4/2022 7:30:00 PM 7.0696 2.3204
6/4/2022 7:45:00 PM 7.0714 2.3393
6/4/2022 8:00:00 PM 7.0714 2.2956
6/4/2022 8:15:00 PM 7.0693 2.3522
6/4/2022 8:30:00 PM 7.0644 2.2437
6/4/2022 8:45:00 PM 7.063 2.3
6/4/2022 9:00:00 PM 7.0483 2.3455
6/4/2022 9:15:00 PM 7.0401 2.3499
6/4/2022 9:30:00 PM 7.0295 2.2493
6/4/2022 9:45:00 PM 7.0209 2.2549
6/4/2022 10:00:00 PM 7.0137 2.2365
6/4/2022 10:15:00 PM 7.0056 2.2603
6/4/2022 10:30:00 PM 6.9988 2.2403
6/4/2022 10:45:00 PM 6.9907 2.2242
6/4/2022 11:00:00 PM 6.9813 2.1559
6/4/2022 11:15:00 PM 6.9717 2.1614
6/4/2022 11:30:00 PM 6.9629 2.1462
6/4/2022 11:45:00 PM 6.9622 2.1999
6/5/2022 12:00:00 AM 6.9468 2.1472
6/5/2022 12:15:00 AM 6.9345 2.2022
6/5/2022 12:30:00 AM 6.9247 2.2254
6/5/2022 12:45:00 AM 6.9161 2.1595
6/5/2022 1:00:00 AM 6.909 2.1364
6/5/2022 1:15:00 AM 6.9006 2.0421
6/5/2022 1:30:00 AM 6.892 2.0522
6/5/2022 1:45:00 AM 6.8822 2.0323
6/5/2022 2:00:00 AM 6.8717 2.0258
6/5/2022 2:15:00 AM 6.8616 2.0347
6/5/2022 2:30:00 AM 6.8533 2.0274
6/5/2022 2:45:00 AM 6.8516 2
6/5/2022 3:00:00 AM 6.839 2.0308
6/5/2022 3:15:00 AM 6.8319 2.0341
6/5/2022 3:30:00 AM 6.8266 2.0315
6/5/2022 3:45:00 AM 6.8213 2.038
6/5/2022 4:00:00 AM 6.817 2.0356
6/5/2022 4:15:00 AM 6.8106 2.0344
6/5/2022 4:30:00 AM 6.8034 2.0369
6/5/2022 4:45:00 AM 6.7975 2.0367
6/5/2022 5:00:00 AM 6.7914 2.0502
6/5/2022 5:15:00 AM 6.7869 2.0437
6/5/2022 5:30:00 AM 6.7834 2.0358
6/5/2022 5:45:00 AM 6.7844 2
6/5/2022 6:00:00 AM 6.7742 2.0406
6/5/2022 6:15:00 AM 6.7682 2.0345
6/5/2022 6:30:00 AM 6.758 2.028
6/5/2022 6:45:00 AM 6.7534 2.0225
6/5/2022 7:00:00 AM 6.7527 2.0358
6/5/2022 7:15:00 AM 6.7521 2.021
6/5/2022 7:30:00 AM 6.7529 2.0369
6/5/2022 7:45:00 AM 6.7543 2.0279
6/5/2022 8:00:00 AM 6.7643 2.038
6/5/2022 8:15:00 AM 6.7739 2.0352
6/5/2022 8:30:00 AM 6.7804 2.0335
6/5/2022 8:45:00 AM 6.783 2.1
6/5/2022 9:00:00 AM 6.793 2.0319
6/5/2022 9:15:00 AM 6.8013 2.0304
6/5/2022 9:30:00 AM 6.8101 2.0225
6/5/2022 9:45:00 AM 6.8173 2.0307
6/5/2022 10:00:00 AM 6.8254 2.0348
6/5/2022 10:15:00 AM 6.8317 2.042
6/5/2022 10:30:00 AM 6.8408 2.0232
6/5/2022 10:45:00 AM 6.8474 2.0351
6/5/2022 11:00:00 AM 6.8563 2.0326
6/5/2022 11:15:00 AM 6.8621 2.031
6/5/2022 11:30:00 AM 6.8601 2.0427
6/5/2022 11:45:00 AM 6.8628 2.1
6/5/2022 12:00:00 PM 6.8651 2.0374
6/5/2022 12:15:00 PM 6.8657 2.0398
6/5/2022 12:30:00 PM 6.87 2.0263
6/5/2022 12:45:00 PM 6.871 2.0566
6/5/2022 1:00:00 PM 6.8697 124.9629
6/5/2022 1:15:00 PM 6.8756 7.1503
6/5/2022 1:30:00 PM 6.883 7.1781
6/5/2022 1:45:00 PM 6.8908 7.1445
6/5/2022 2:00:00 PM 6.8981 7.2512
6/5/2022 2:15:00 PM 6.9051 7.1618
6/5/2022 2:30:00 PM 6.9157 7.0628
6/5/2022 2:45:00 PM 6.9261 6.8979
6/5/2022 3:00:00 PM 6.9366 6.9492
6/5/2022 3:15:00 PM 6.948 6.8776
6/5/2022 3:30:00 PM 6.9581 6.9571
6/5/2022 3:45:00 PM 6.9658 6.8853
6/5/2022 4:00:00 PM 6.9775 7.0493
6/5/2022 4:15:00 PM 6.9872 6.8757
6/5/2022 4:30:00 PM 6.9983 6.9755
6/5/2022 4:45:00 PM 7.0087 7.1541
6/5/2022 5:00:00 PM 7.0183 7.3919
6/5/2022 5:15:00 PM 7.0276 7.257
6/5/2022 5:30:00 PM 7.0353 7.2546
6/5/2022 5:45:00 PM 7.0434 7.1
6/5/2022 6:00:00 PM 7.0562 7.1271
6/5/2022 6:15:00 PM 7.0641 7.0233
6/5/2022 6:30:00 PM 7.0715 6.9626
6/5/2022 6:45:00 PM 7.0759 7.0402
6/5/2022 7:00:00 PM 7.0798 7.0293
6/5/2022 7:15:00 PM 7.0778 7.0526
6/5/2022 7:30:00 PM 7.0764 7.0567
6/5/2022 7:45:00 PM 7.0764 7.1012
6/5/2022 8:00:00 PM 7.0745 7.3412
6/5/2022 8:15:00 PM 7.0697 7.3181
6/5/2022 8:30:00 PM 7.0624 7.873
6/5/2022 8:45:00 PM 7.0574 8.0999
6/5/2022 9:00:00 PM 7.0448 8.4386
6/5/2022 9:15:00 PM 7.0369 9.2714
6/5/2022 9:30:00 PM 7.0285 9.8924
6/5/2022 9:45:00 PM 7.0163 10.1131
6/5/2022 10:00:00 PM 7.0075 9.7585
6/5/2022 10:15:00 PM 6.9983 9.467
6/5/2022 10:30:00 PM 6.985 9.6531
6/5/2022 10:45:00 PM 6.9726 10.7453
6/5/2022 11:00:00 PM 6.964 10.879
6/5/2022 11:15:00 PM 6.9549 10.7123
6/5/2022 11:30:00 PM 6.9481 10.591
6/5/2022 11:45:00 PM 6.9454 10.7
6/6/2022 12:00:00 AM 6.9314 10.9604
6/6/2022 12:15:00 AM 6.9214 11.0989
6/6/2022 12:30:00 AM 6.912 10.7521
6/6/2022 12:45:00 AM 6.9014 10.6991
6/6/2022 1:00:00 AM 6.8895 10.7923
6/6/2022 1:15:00 AM 6.8787 10.4194
6/6/2022 1:30:00 AM 6.8673 10.4313
6/6/2022 1:45:00 AM 6.8546 10.9483
6/6/2022 2:00:00 AM 6.8444 10.9017
6/6/2022 2:15:00 AM 6.8358 10.8062
6/6/2022 2:30:00 AM 6.8266 10.863
6/6/2022 2:45:00 AM 6.8222 11.4
6/6/2022 3:00:00 AM 6.8068 9.9453
6/6/2022 3:15:00 AM 6.7976 9.9829
6/6/2022 3:30:00 AM 6.789 9.8634
6/6/2022 3:45:00 AM 6.7816 10.0952
6/6/2022 4:00:00 AM 6.7738 10.0581
6/6/2022 4:15:00 AM 6.7671 10.0364
6/6/2022 4:30:00 AM 6.7611 9.9496
6/6/2022 4:45:00 AM 6.7553 9.9101
6/6/2022 5:00:00 AM 6.7479 10.0373
6/6/2022 5:15:00 AM 6.7407 10.1566
6/6/2022 5:30:00 AM 6.736 10.3326
6/6/2022 5:45:00 AM 6.7326 10.1
6/6/2022 6:00:00 AM 6.7228 15.9385
6/6/2022 6:15:00 AM 6.7144 9.2689
6/6/2022 6:30:00 AM 6.7086 9.11
6/6/2022 6:45:00 AM 6.7051 8.2499
6/6/2022 7:00:00 AM 6.6987 8.0059
6/6/2022 7:15:00 AM 6.6923 8.1146
6/6/2022 7:30:00 AM 6.6904 7.9152
6/6/2022 7:45:00 AM 6.6882 8.0456
6/6/2022 8:00:00 AM 6.6854 8.2033
6/6/2022 8:15:00 AM 6.6856 8.2071
6/6/2022 8:30:00 AM 6.6858 8.0452
6/6/2022 8:45:00 AM 6.6878 7.9001
6/6/2022 9:00:00 AM 6.6814 9.8433
6/6/2022 9:15:00 AM 6.683 11.5762
6/6/2022 9:30:00 AM 6.6916 10.6865
6/6/2022 9:45:00 AM 6.6956 9.5919
6/6/2022 10:00:00 AM 6.6993 9.2923
6/6/2022 10:15:00 AM 6.7051 9.0734
6/6/2022 10:30:00 AM 6.7076 8.8473
6/6/2022 10:45:00 AM 6.7104 8.7724
6/6/2022 11:00:00 AM 6.715 8.8204
6/6/2022 11:15:00 AM 6.7157 9.1419
6/6/2022 11:30:00 AM 6.7181 10.3513
6/6/2022 11:45:00 AM 6.7214 11.1
6/6/2022 12:00:00 PM 6.729 10.6773
6/6/2022 12:15:00 PM 6.737 10.918
6/6/2022 12:30:00 PM 6.7452 10.7773
6/6/2022 12:45:00 PM 6.7546 10.3044
6/6/2022 1:00:00 PM 6.7624 9.4891
6/6/2022 1:15:00 PM 6.7669 10.0208
6/6/2022 1:30:00 PM 6.7706 10.0245
6/6/2022 1:45:00 PM 6.7816 9.69
6/6/2022 2:00:00 PM 6.7926 9.7345
6/6/2022 2:15:00 PM 6.8051 9.5696
6/6/2022 2:30:00 PM 6.821 9.7549
6/6/2022 2:45:00 PM 6.8351 9.765
6/6/2022 3:00:00 PM 6.846 10.3078
6/6/2022 3:15:00 PM 6.8542 10.8374
6/6/2022 3:30:00 PM 6.8647 10.0914
6/6/2022 3:45:00 PM 6.8762 10.7556
6/6/2022 4:00:00 PM 6.8631 8.6441
6/6/2022 4:15:00 PM 6.8793 7.48
6/6/2022 4:30:00 PM 6.9006 7.12
6/6/2022 4:45:00 PM 6.9159 7.2393
6/6/2022 5:00:00 PM 6.9288 7.3492
6/6/2022 5:15:00 PM 6.9455 7.3757
6/6/2022 5:30:00 PM 6.9615 7.0602
6/6/2022 5:45:00 PM 6.972 7.1
6/6/2022 6:00:00 PM 6.9902 6.9248
6/6/2022 6:15:00 PM 6.999 6.7415
6/6/2022 6:30:00 PM 7.0038 6.7098
6/6/2022 6:45:00 PM 7.0096 7.0152
6/6/2022 7:00:00 PM 7.0155 6.9531
6/6/2022 7:15:00 PM 7.0235 6.6083
6/6/2022 7:30:00 PM 7.0244 6.6073
6/6/2022 7:45:00 PM 7.0233 6.6155
6/6/2022 8:00:00 PM 7.0235 6.6694
6/6/2022 8:15:00 PM 7.0235 6.7256
6/6/2022 8:30:00 PM 7.0221 6.8197
6/6/2022 8:45:00 PM 7.0196 6.8
6/6/2022 9:00:00 PM 7.0119 7.4671
6/6/2022 9:15:00 PM 7.0046 7.7033
6/6/2022 9:30:00 PM 7.0005 8.0143
6/6/2022 9:45:00 PM 6.9884 11.4058
6/6/2022 10:00:00 PM 6.9839 10.9709
6/6/2022 10:15:00 PM 6.9824 10.1995
6/6/2022 10:30:00 PM 6.9834 9.9875
6/6/2022 10:45:00 PM 6.981 9.9372
6/6/2022 11:00:00 PM 6.9761 10.0647
6/6/2022 11:15:00 PM 6.9707 10.4375
6/6/2022 11:30:00 PM 6.964 9.9783
6/6/2022 11:45:00 PM 6.958 9.4
6/7/2022 12:00:00 AM 6.9522 9.5423
6/7/2022 12:15:00 AM 6.9507 9.539
6/7/2022 12:30:00 AM 6.945 9.3719
6/7/2022 12:45:00 AM 6.9367 9.5706
6/7/2022 1:00:00 AM 6.9274 9.3174
6/7/2022 1:15:00 AM 6.9171 9.4277
6/7/2022 1:30:00 AM 6.9112 9.9172
6/7/2022 1:45:00 AM 6.9055 9.9492
6/7/2022 2:00:00 AM 6.8979 10.0863
6/7/2022 2:15:00 AM 6.8902 9.9191
6/7/2022 2:30:00 AM 6.8819 10.094
6/7/2022 2:45:00 AM 6.8782 10.4999
6/7/2022 3:00:00 AM 6.8645 10.2212
6/7/2022 3:15:00 AM 6.8524 10.4907
6/7/2022 3:30:00 AM 6.8398 10.5473
6/7/2022 3:45:00 AM 6.8326 10.3601
6/7/2022 4:00:00 AM 6.8245 10.9258
6/7/2022 4:15:00 AM 6.8163 11.2665
6/7/2022 4:30:00 AM 6.8077 10.5396
6/7/2022 4:45:00 AM 6.7988 10.2305
6/7/2022 5:00:00 AM 6.7908 10.4374
6/7/2022 5:15:00 AM 6.7834 10.2706
6/7/2022 5:30:00 AM 6.7767 10.3164
6/7/2022 5:45:00 AM 6.7718 9.9
6/7/2022 6:00:00 AM 6.764 9.8863
6/7/2022 6:15:00 AM 6.7553 10.3306
6/7/2022 6:30:00 AM 6.7519 10.0757
6/7/2022 6:45:00 AM 6.7479 9.6781
6/7/2022 7:00:00 AM 6.7461 9.3735
6/7/2022 7:15:00 AM 6.7403 9.0935
6/7/2022 7:30:00 AM 6.7384 8.8666
6/7/2022 7:45:00 AM 6.7389 8.8666
6/7/2022 8:00:00 AM 6.7389 8.513
6/7/2022 8:15:00 AM 6.7385 8.5414
6/7/2022 8:30:00 AM 6.7382 8.4333
6/7/2022 8:45:00 AM 6.7368 8.7
6/7/2022 9:00:00 AM 6.7449 8.5602
6/7/2022 9:15:00 AM 6.7506 8.3854
6/7/2022 9:30:00 AM 6.7523 8.2678
6/7/2022 9:45:00 AM 6.7526 8.7328
6/7/2022 10:00:00 AM 6.7494 8.7252
6/7/2022 10:15:00 AM 6.7505 8.7658
6/7/2022 10:30:00 AM 6.754 8.7421
6/7/2022 10:45:00 AM 6.7567 8.5228
6/7/2022 11:00:00 AM 6.7591 9.7106
6/7/2022 11:15:00 AM 6.7588 9.4394
6/7/2022 11:30:00 AM 6.7628 8.7381
6/7/2022 11:45:00 AM 6.7662 8.5
6/7/2022 12:00:00 PM 6.7731 9.5927
6/7/2022 12:15:00 PM 6.7776 9.5461
6/7/2022 12:30:00 PM 6.784 9.056
6/7/2022 12:45:00 PM 6.7888 8.6839
6/7/2022 1:00:00 PM 6.7937 8.9138
6/7/2022 1:15:00 PM 6.7983 13.9361
6/7/2022 1:30:00 PM 6.8065 9.7675
6/7/2022 1:45:00 PM 6.8112 8.847
6/7/2022 2:00:00 PM 6.8164 8.2942
6/7/2022 2:15:00 PM 6.8205 7.4782
6/7/2022 2:30:00 PM 6.8217 7.2881
6/7/2022 2:45:00 PM 6.8246 6.8728
6/7/2022 3:00:00 PM 6.831 6.7066
6/7/2022 3:15:00 PM 6.8352 6.5672
6/7/2022 3:30:00 PM 6.8366 6.8543
6/7/2022 3:45:00 PM 6.8402 6.8817
6/7/2022 4:00:00 PM 6.8427 6.7974
6/7/2022 4:15:00 PM 6.8496 6.6868
6/7/2022 4:30:00 PM 6.8558 7.6671
6/7/2022 4:45:00 PM 6.8631 7.8576
6/7/2022 5:00:00 PM 6.8664 8.0237
6/7/2022 5:15:00 PM 6.8706 6.9961
6/7/2022 5:30:00 PM 6.8743 6.8065
6/7/2022 5:45:00 PM 6.8754 6.9
6/7/2022 6:00:00 PM 6.8787 6.7807
6/7/2022 6:15:00 PM 6.8792 6.6386
6/7/2022 6:30:00 PM 6.8795 6.6312
6/7/2022 6:45:00 PM 6.8835 8.0761
6/7/2022 7:00:00 PM 6.8848 7.3743
6/7/2022 7:15:00 PM 6.8887 6.7148
6/7/2022 7:30:00 PM 6.8887 6.6648
6/7/2022 7:45:00 PM 6.8885 6.6191
6/7/2022 8:00:00 PM 6.8898 6.627
6/7/2022 8:15:00 PM 6.8888 6.6024
6/7/2022 8:30:00 PM 6.8882 6.7214
6/7/2022 8:45:00 PM 6.8894 6.8
6/7/2022 9:00:00 PM 6.8871 6.9497
6/7/2022 9:15:00 PM 6.884 7.1862
6/7/2022 9:30:00 PM 6.881 7.5463
6/7/2022 9:45:00 PM 6.8792 7.7101
6/7/2022 10:00:00 PM 6.8776 9.7913
6/7/2022 10:15:00 PM 6.8743 9.5116
6/7/2022 10:30:00 PM 6.8708 9.5239
6/7/2022 10:45:00 PM 6.8659 9.1305
6/7/2022 11:00:00 PM 6.865 8.7672
6/7/2022 11:15:00 PM 6.8631 8.7596
6/7/2022 11:30:00 PM 6.8599 8.8417
6/7/2022 11:45:00 PM 6.8614 8.7
6/8/2022 12:00:00 AM 6.8542 8.807
6/8/2022 12:15:00 AM 6.8485 8.5773
6/8/2022 12:30:00 AM 6.8418 8.8265
6/8/2022 12:45:00 AM 6.8353 8.8653
6/8/2022 1:00:00 AM 6.8295 8.9481
6/8/2022 1:15:00 AM 6.8241 9.1282
6/8/2022 1:30:00 AM 6.8172 8.8236
6/8/2022 1:45:00 AM 6.8131 9.6945
6/8/2022 2:00:00 AM 6.8085 9.4372
6/8/2022 2:15:00 AM 6.8015 9.1066
6/8/2022 2:30:00 AM 6.7934 9.512
6/8/2022 2:45:00 AM 6.79 9.2
6/8/2022 3:00:00 AM 6.781 9.3475
6/8/2022 3:15:00 AM 6.7771 9.2167
6/8/2022 3:30:00 AM 6.7702 9.235
6/8/2022 3:45:00 AM 6.7643 8.9917
6/8/2022 4:00:00 AM 6.7588 9.0813
6/8/2022 4:15:00 AM 6.7525 9.185
6/8/2022 4:30:00 AM 6.7447 9.0346
6/8/2022 4:45:00 AM 6.7393 10.1863
6/8/2022 5:00:00 AM 6.7332 9.6277
6/8/2022 5:15:00 AM 6.7271 10.7872
6/8/2022 5:30:00 AM 6.7217 9.3404
6/8/2022 5:45:00 AM 6.7214 9.2
6/8/2022 6:00:00 AM 6.7113 10.5617
6/8/2022 6:15:00 AM 6.7057 8.8518
6/8/2022 6:30:00 AM 6.7014 8.281
6/8/2022 6:45:00 AM 6.6967 8.0533
6/8/2022 7:00:00 AM 6.6956 7.9999
6/8/2022 7:15:00 AM 6.6952 7.8778
6/8/2022 7:30:00 AM 6.6924 7.9321
6/8/2022 7:45:00 AM 6.6898 7.7879
6/8/2022 8:00:00 AM 6.6887 7.7474
6/8/2022 8:15:00 AM 6.6886 7.636
6/8/2022 8:30:00 AM 6.6906 7.5717
6/8/2022 8:45:00 AM 6.6892 7.5
6/8/2022 9:00:00 AM 6.6945 7.3875
6/8/2022 9:15:00 AM 6.6946 7.3892
6/8/2022 9:30:00 AM 6.6956 7.5616
6/8/2022 9:45:00 AM 6.6986 7.3435
6/8/2022 10:00:00 AM 6.7024 7.1958
6/8/2022 10:15:00 AM 6.7056 7.0517
6/8/2022 10:30:00 AM 6.7077 6.9874
6/8/2022 10:45:00 AM 6.7105 6.9785
6/8/2022 11:00:00 AM 6.7112 6.9968
6/8/2022 11:15:00 AM 6.7126 7.048
6/8/2022 11:30:00 AM 6.7148 7.0462
6/8/2022 11:45:00 AM 6.7144 7.2
6/8/2022 12:00:00 PM 6.7247 6.9304
6/8/2022 12:15:00 PM 6.7349 6.9716
6/8/2022 12:30:00 PM 6.7383 6.9713
6/8/2022 12:45:00 PM 6.738 7.0893
6/8/2022 1:00:00 PM 6.7424 6.9044
6/8/2022 1:15:00 PM 6.7483 6.9649
6/8/2022 1:30:00 PM 6.7528 8.1271
6/8/2022 1:45:00 PM 6.7594 8.2384
6/8/2022 2:00:00 PM 6.772 6.8523
6/8/2022 2:15:00 PM 6.7843 9.8074
6/8/2022 2:30:00 PM 6.786 12.3514
6/8/2022 2:45:00 PM 6.7884 9.9474
6/8/2022 3:00:00 PM 6.7919 7.8994
6/8/2022 3:15:00 PM 6.795 7.4309
6/8/2022 3:30:00 PM 6.7996 7.0576
6/8/2022 3:45:00 PM 6.8061 6.8161
6/8/2022 4:00:00 PM 6.8175 6.9331
6/8/2022 4:15:00 PM 6.8297 6.8424
6/8/2022 4:30:00 PM 6.8419 6.8924
6/8/2022 4:45:00 PM 6.8544 6.7636
6/8/2022 5:00:00 PM 6.8656 6.8256
6/8/2022 5:15:00 PM 6.874 6.7262
6/8/2022 5:30:00 PM 6.8819 6.7458
6/8/2022 5:45:00 PM 6.888 6.6
6/8/2022 6:00:00 PM 6.9032 7.0722
6/8/2022 6:15:00 PM 6.9092 6.7992
6/8/2022 6:30:00 PM 6.9172 6.8124
6/8/2022 6:45:00 PM 6.9261 6.9161
6/8/2022 7:00:00 PM 6.9344 6.9243
6/8/2022 7:15:00 PM 6.9389 7.177
6/8/2022 7:30:00 PM 6.9416 7.0111
6/8/2022 7:45:00 PM 6.9438 7.0529
6/8/2022 8:00:00 PM 6.9494 7.1041
6/8/2022 8:15:00 PM 6.9506 7.3594
6/8/2022 8:30:00 PM 6.9448 7.1821
6/8/2022 8:45:00 PM 6.9426 7.2
6/8/2022 9:00:00 PM 6.9369 7.4729
6/8/2022 9:15:00 PM 6.932 7.8734
6/8/2022 9:30:00 PM 6.9281 7.9834
6/8/2022 9:45:00 PM 6.9268 7.8988
6/8/2022 10:00:00 PM 6.9225 7.9846
6/8/2022 10:15:00 PM 6.9166 7.9296
6/8/2022 10:30:00 PM 6.9102 8.0681
6/8/2022 10:45:00 PM 6.9049 8.239
6/8/2022 11:00:00 PM 6.899 7.9239
6/8/2022 11:15:00 PM 6.8939 7.7639
6/8/2022 11:30:00 PM 6.8856 7.8486
6/8/2022 11:45:00 PM 6.8852 7.8
6/9/2022 12:00:00 AM 6.8721 8.0284
6/9/2022 12:15:00 AM 6.8657 7.8573
6/9/2022 12:30:00 AM 6.8574 7.9559
6/9/2022 12:45:00 AM 6.8493 7.9973
6/9/2022 1:00:00 AM 6.8444 7.8872
6/9/2022 1:15:00 AM 6.8381 7.9721
6/9/2022 1:30:00 AM 6.8306 8.1368
6/9/2022 1:45:00 AM 6.8242 8.2086
6/9/2022 2:00:00 AM 6.8203 8.5491
6/9/2022 2:15:00 AM 6.8153 9.1129
6/9/2022 2:30:00 AM 6.8091 9.3238
6/9/2022 2:45:00 AM 6.8054 9.2
6/9/2022 3:00:00 AM 6.7976 9.3838
6/9/2022 3:15:00 AM 6.7917 9.4652
6/9/2022 3:30:00 AM 6.7856 9.8743
6/9/2022 3:45:00 AM 6.7798 9.7223
6/9/2022 4:00:00 AM 6.7739 9.9234
6/9/2022 4:15:00 AM 6.7684 9.3208
6/9/2022 4:30:00 AM 6.7588 9.5653
6/9/2022 4:45:00 AM 6.7495 9.9233
6/9/2022 5:00:00 AM 6.7407 10.0148
6/9/2022 5:15:00 AM 6.7305 9.8618
6/9/2022 5:30:00 AM 6.7201 10.7927
6/9/2022 5:45:00 AM 6.7172 11.1
6/9/2022 6:00:00 AM 6.6992 13.2599
6/9/2022 6:15:00 AM 6.6926 15.4116
6/9/2022 6:30:00 AM 6.6884 14.9899
6/9/2022 6:45:00 AM 6.6825 16.7128
6/9/2022 7:00:00 AM 6.6769 19.3439
6/9/2022 7:15:00 AM 6.6709 21.9331
6/9/2022 7:30:00 AM 6.6622 24.4261
6/9/2022 7:45:00 AM 6.6506 21.0387
6/9/2022 8:00:00 AM 6.6415 17.5467
6/9/2022 8:15:00 AM 6.6352 19.2669
6/9/2022 8:30:00 AM 6.632 16.2493
6/9/2022 8:45:00 AM 6.629 15.8
6/9/2022 9:00:00 AM 6.622 13.8343
6/9/2022 9:15:00 AM 6.6156 17.5077
6/9/2022 9:30:00 AM 6.611 18.9502
6/9/2022 9:45:00 AM 6.6052 18.6564
6/9/2022 10:00:00 AM 6.6032 17.1719
6/9/2022 10:15:00 AM 6.6011 16.6748
6/9/2022 10:30:00 AM 6.6015 16.8895
6/9/2022 10:45:00 AM 6.6032 16.3418
6/9/2022 11:00:00 AM 6.6032 15.2398
6/9/2022 11:15:00 AM 6.6091 17.1069
6/9/2022 11:30:00 AM 6.6157 16.2463
6/9/2022 11:45:00 AM 6.6164 15.2999
6/9/2022 12:00:00 PM 6.6258 13.9548
6/9/2022 12:15:00 PM 6.6305 13.5702
6/9/2022 12:30:00 PM 6.6353 15.267
6/9/2022 12:45:00 PM 6.6371 15.8713
6/9/2022 1:00:00 PM 6.6406 14.185
6/9/2022 1:15:00 PM 6.6437 13.1049
6/9/2022 1:30:00 PM 6.6475 12.7347
6/9/2022 1:45:00 PM 6.6518 12.5527
6/9/2022 2:00:00 PM 6.6555 12.4762
6/9/2022 2:15:00 PM 6.6612 12.289
6/9/2022 2:30:00 PM 6.6664 12.2237
6/9/2022 2:45:00 PM 6.673 12.2268
6/9/2022 3:00:00 PM 6.6802 12.2195
6/9/2022 3:15:00 PM 6.685 12.2951
6/9/2022 3:30:00 PM 6.689 12.6569
6/9/2022 3:45:00 PM 6.6946 13.0201
6/9/2022 4:00:00 PM 6.6963 13.5213
6/9/2022 4:15:00 PM 6.6957 14.0666
6/9/2022 4:30:00 PM 6.6948 14.7666
6/9/2022 4:45:00 PM 6.6966 14.5659
6/9/2022 5:00:00 PM 6.7014 14.1882
6/9/2022 5:15:00 PM 6.7054 14.0929
6/9/2022 5:30:00 PM 6.71 14.2038
6/9/2022 5:45:00 PM 6.7088 14.7
6/9/2022 6:00:00 PM 6.7077 17.0736
6/9/2022 6:15:00 PM 6.6961 17.7393
6/9/2022 6:30:00 PM 6.6863 17.4525
6/9/2022 6:45:00 PM 6.6786 17.3119
6/9/2022 7:00:00 PM 6.673 17.576
6/9/2022 7:15:00 PM 6.6642 17.9909
6/9/2022 7:30:00 PM 6.6526 18.1216
6/9/2022 7:45:00 PM 6.6427 18.0301
6/9/2022 8:00:00 PM 6.6358 17.7142
6/9/2022 8:15:00 PM 6.6306 17.6668
6/9/2022 8:30:00 PM 6.6238 17.5756
6/9/2022 8:45:00 PM 6.6178 17.8
6/9/2022 9:00:00 PM 6.6083 17.2396
6/9/2022 9:15:00 PM 6.6011 17.0626
6/9/2022 9:30:00 PM 6.593 16.808
6/9/2022 9:45:00 PM 6.5884 16.1828
6/9/2022 10:00:00 PM 6.5842 15.9234
6/9/2022 10:15:00 PM 6.584 15.7722
6/9/2022 10:30:00 PM 6.5824 15.596
6/9/2022 10:45:00 PM 6.5796 15.4303
6/9/2022 11:00:00 PM 6.5756 15.4806
6/9/2022 11:15:00 PM 6.5705 15.4052
6/9/2022 11:30:00 PM 6.5652 14.9885
6/9/2022 11:45:00 PM 6.5646 14.8
6/10/2022 12:00:00 AM 6.557 14.6863
6/10/2022 12:15:00 AM 6.5525 14.5847
6/10/2022 12:30:00 AM 6.5476 14.9
6/10/2022 12:45:00 AM 6.5423 14.6874
6/10/2022 1:00:00 AM 6.5408 14.4557
6/10/2022 1:15:00 AM 6.5366 14.3007
6/10/2022 1:30:00 AM 6.5321 14.135
6/10/2022 1:45:00 AM 6.5287 13.8241
6/10/2022 2:00:00 AM 6.526 13.8188
6/10/2022 2:15:00 AM 6.5221 13.7285
6/10/2022 2:30:00 AM 6.521 13.6914
6/10/2022 2:45:00 AM 6.5184 13.8
6/10/2022 3:00:00 AM 6.5122 14.1351
6/10/2022 3:15:00 AM 6.5096 13.9114
6/10/2022 3:30:00 AM 6.5062 13.7457
6/10/2022 3:45:00 AM 6.5024 14.0197
6/10/2022 4:00:00 AM 6.5016 13.8908
6/10/2022 4:15:00 AM 6.4997 14.204
6/10/2022 4:30:00 AM 6.4977 13.7835
6/10/2022 4:45:00 AM 6.497 13.2412
6/10/2022 5:00:00 AM 6.4946 13.2306
6/10/2022 5:15:00 AM 6.4929 13.1891
6/10/2022 5:30:00 AM 6.4926 12.9295
6/10/2022 5:45:00 AM 6.4946 12.8
6/10/2022 6:00:00 AM 6.4895 12.4668
6/10/2022 6:15:00 AM 6.4876 12.292
6/10/2022 6:30:00 AM 6.4879 12.1389
6/10/2022 6:45:00 AM 6.4875 11.9013
6/10/2022 7:00:00 AM 6.4876 11.5694
6/10/2022 7:15:00 AM 6.4868 11.314
6/10/2022 7:30:00 AM 6.4872 11.2451
6/10/2022 7:45:00 AM 6.4873 11.0272
6/10/2022 8:00:00 AM 6.4875 10.7589
6/10/2022 8:15:00 AM 6.487 10.4627
6/10/2022 8:30:00 AM 6.4894 10.3051
6/10/2022 8:45:00 AM 6.4932 10.1
6/10/2022 9:00:00 AM 6.4934 9.9481
6/10/2022 9:15:00 AM 6.4968 9.7549
6/10/2022 9:30:00 AM 6.5008 9.6698
6/10/2022 9:45:00 AM 6.5019 9.6442
6/10/2022 10:00:00 AM 6.5052 9.5543
6/10/2022 10:15:00 AM 6.509 9.3512
6/10/2022 10:30:00 AM 6.512 9.3032
6/10/2022 10:45:00 AM 6.5171 9.1326
6/10/2022 11:00:00 AM 6.5217 9.4011
6/10/2022 11:15:00 AM 6.5251 8.9745
6/10/2022 11:30:00 AM 6.5314 8.7398
6/10/2022 11:45:00 AM 6.5366 8.6
6/10/2022 12:00:00 PM 6.5452 8.5156
6/10/2022 12:15:00 PM 6.5513 10.6212
6/10/2022 12:30:00 PM 6.5586 9.0754
6/10/2022 12:45:00 PM 6.57 8.2833
6/10/2022 1:00:00 PM 6.5771 8.02
6/10/2022 1:15:00 PM 6.5816 7.8265
6/10/2022 1:30:00 PM 6.5896 7.7157
6/10/2022 1:45:00 PM 6.5976 7.666
6/10/2022 2:00:00 PM 6.6044 7.6032
6/10/2022 2:15:00 PM 6.6123 7.4868
6/10/2022 2:30:00 PM 6.6194 7.4224
6/10/2022 2:45:00 PM 6.6291 7.3309
6/10/2022 3:00:00 PM 6.6381 7.2659
6/10/2022 3:15:00 PM 6.6459 7.0895
6/10/2022 3:30:00 PM 6.6533 7.0783
6/10/2022 3:45:00 PM 6.6641 7.1022
6/10/2022 4:00:00 PM 6.6756 7.0269
6/10/2022 4:15:00 PM 6.6867 6.8897
6/10/2022 4:30:00 PM 6.6952 6.8554
6/10/2022 4:45:00 PM 6.7029 6.9074
6/10/2022 5:00:00 PM 6.7096 6.9345
6/10/2022 5:15:00 PM 6.7171 6.6901
6/10/2022 5:30:00 PM 6.7245 6.5595
6/10/2022 5:45:00 PM 6.7298 6.5
6/10/2022 6:00:00 PM 6.7342 6.5648
6/10/2022 6:15:00 PM 6.7388 6.6085
6/10/2022 6:30:00 PM 6.7432 6.6329
6/10/2022 6:45:00 PM 6.7471 6.5971
6/10/2022 7:00:00 PM 6.7525 6.7481
6/10/2022 7:15:00 PM 6.7571 6.6592
6/10/2022 7:30:00 PM 6.7583 6.6046
6/10/2022 7:45:00 PM 6.7605 6.5585
6/10/2022 8:00:00 PM 6.7671 7.391
6/10/2022 8:15:00 PM 6.778 7.0143
6/10/2022 8:30:00 PM 6.7822 6.9845
6/10/2022 8:45:00 PM 6.783 6.9
6/10/2022 9:00:00 PM 6.7798 7.1902
6/10/2022 9:15:00 PM 6.7773 7.2671
6/10/2022 9:30:00 PM 6.7732 7.4161
6/10/2022 9:45:00 PM 6.7698 7.5065
6/10/2022 10:00:00 PM 6.7667 7.6972
6/10/2022 10:15:00 PM 6.7632 8.061
6/10/2022 10:30:00 PM 6.7597 7.9965
6/10/2022 10:45:00 PM 6.7576 8.0041
6/10/2022 11:00:00 PM 6.7534 8.0051
6/10/2022 11:15:00 PM 6.7508 7.9886
6/10/2022 11:30:00 PM 6.747 7.9342
6/10/2022 11:45:00 PM 6.7452 7.9
6/11/2022 12:00:00 AM 6.7365 8.0371
6/11/2022 12:15:00 AM 6.7312 7.8427
6/11/2022 12:30:00 AM 6.7269 7.8664
6/11/2022 12:45:00 AM 6.722 7.8899
6/11/2022 1:00:00 AM 6.7155 8.1145
6/11/2022 1:15:00 AM 6.7119 8.1029
6/11/2022 1:30:00 AM 6.7081 8.2428
6/11/2022 1:45:00 AM 6.7041 8.2323
6/11/2022 2:00:00 AM 6.6981 8.3252
6/11/2022 2:15:00 AM 6.6943 9.2225
6/11/2022 2:30:00 AM 6.6896 8.1799
6/11/2022 2:45:00 AM 6.685 8.2
6/11/2022 3:00:00 AM 6.6772 8.2376
6/11/2022 3:15:00 AM 6.6737 8.1589
6/11/2022 3:30:00 AM 6.6708 8.1895
6/11/2022 3:45:00 AM 6.664 8.1757
6/11/2022 4:00:00 AM 6.6591 8.2363
6/11/2022 4:15:00 AM 6.6546 8.1741
6/11/2022 4:30:00 AM 6.6487 8.3578
6/11/2022 4:45:00 AM 6.6444 8.307
6/11/2022 5:00:00 AM 6.6395 8.5067
6/11/2022 5:15:00 AM 6.6329 8.4657
6/11/2022 5:30:00 AM 6.6287 8.3669
6/11/2022 5:45:00 AM 6.6304 8.3
6/11/2022 6:00:00 AM 6.6193 8.276
6/11/2022 6:15:00 AM 6.6189 8.0869
6/11/2022 6:30:00 AM 6.6171 8.1586
6/11/2022 6:45:00 AM 6.6148 7.9144
6/11/2022 7:00:00 AM 6.6128 7.6108
6/11/2022 7:15:00 AM 6.6095 7.5572
6/11/2022 7:30:00 AM 6.611 7.8684
6/11/2022 7:45:00 AM 6.6135 7.4026
6/11/2022 8:00:00 AM 6.6152 7.0662
6/11/2022 8:15:00 AM 6.6194 7.1243
6/11/2022 8:30:00 AM 6.6237 7.0263
6/11/2022 8:45:00 AM 6.6248 6.7